FW6434 Weather Reports


Display with metric or nautical units.
time (UTC)temp
F
wind
direction
speed
MPH
gust
MPH
rain 1hr
in
rain 24hr
in
rain mn
in
humidity
%
barometer
mb
20260507055115 60 211 0.0 6.0 0.00 0.00 0.00 85 1008.0
20260507055104 60 215 2.0 6.0 0.00 0.00 0.00 85 1008.0
20260507055055 60 232 3.0 6.0 0.00 0.00 0.00 85 1008.0
20260507055039 60 180 0.0 6.0 0.00 0.00 0.00 85 1008.0
20260507055023 60 215 2.0 6.0 0.00 0.00 0.00 85 1008.0
20260507054714 60 186 0.0 6.0 0.00 0.00 0.00 86 1007.9
20260507054614 60 208 1.0 6.0 0.00 0.00 0.00 86 1007.9
20260507054513 59 191 0.0 6.0 0.00 0.00 0.00 86 1007.9
20260507054414 59 211 0.0 6.0 0.00 0.00 0.00 86 1007.9
20260507054350 59 216 1.0 6.0 0.00 0.00 0.00 86 1008.0
20260507054334 59 207 1.0 6.0 0.00 0.00 0.00 86 1007.8
20260507054055 59 210 0.0 6.0 0.00 0.00 0.00 86 1007.9
20260507054040 59 215 2.0 4.0 0.00 0.00 0.00 86 1007.7
20260507053813 59 203 0.0 4.0 0.00 0.00 0.00 86 1007.8
20260507053713 59 207 2.0 4.0 0.00 0.00 0.00 86 1007.8
20260507053614 59 194 0.0 4.0 0.00 0.00 0.00 87 1007.9
20260507053557 59 192 0.0 4.0 0.00 0.00 0.00 87 1007.8
20260507053541 59 193 0.0 4.0 0.00 0.00 0.00 86 1007.9
20260507053313 59 202 0.0 4.0 0.00 0.00 0.00 86 1007.9
20260507053250 59 207 0.0 1.0 0.00 0.00 0.00 86 1007.9
20260507053234 59 190 0.0 0.0 0.00 0.00 0.00 86 1007.7
20260507052946 59 187 0.0 1.0 0.00 0.00 0.00 86 1008.1
20260507052924 59 190 0.0 1.0 0.00 0.00 0.00 86 1008.0
20260507052909 59 190 0.0 1.0 0.00 0.00 0.00 86 1008.1
20260507052632 59 190 0.0 1.0 0.00 0.00 0.00 86 1008.0
20260507052313 59 190 0.0 1.0 0.00 0.00 0.00 86 1007.8
20260507052213 59 188 0.0 1.0 0.00 0.00 0.00 86 1008.0
20260507052149 59 191 0.0 1.0 0.00 0.00 0.00 86 1007.8
20260507052134 59 189 0.0 1.0 0.00 0.00 0.00 86 1007.8
20260507051813 59 194 0.0 1.0 0.00 0.00 0.00 86 1007.9
20260507051715 59 202 0.0 1.0 0.00 0.00 0.00 86 1007.6
20260507051613 59 204 0.0 1.0 0.00 0.00 0.00 86 1007.8
20260507051512 60 202 0.0 1.0 0.00 0.00 0.00 86 1007.7
20260507051414 60 186 0.0 0.0 0.00 0.00 0.00 86 1007.6
20260507051312 60 194 0.0 0.0 0.00 0.00 0.00 86 1007.9
20260507051213 60 193 0.0 0.0 0.00 0.00 0.00 86 1007.9
20260507051114 60 199 0.0 0.0 0.00 0.00 0.00 86 1008.0
20260507051012 60 198 0.0 0.0 0.00 0.00 0.00 86 1007.9
20260507050913 60 196 0.0 0.0 0.00 0.00 0.00 86 1007.8
20260507050813 60 199 0.0 0.0 0.00 0.00 0.00 86 1007.8
20260507050714 60 193 0.0 0.0 0.00 0.00 0.00 86 1007.8
20260507050648 60 193 0.0 0.0 0.00 0.00 0.00 85 1007.5
20260507050632 60 192 0.0 0.0 0.00 0.00 0.00 86 1007.7
20260507050617 60 192 0.0 0.0 0.00 0.00 0.00 86 1007.7
20260507050552 60 192 0.0 0.0 0.00 0.00 0.00 86 1007.6
20260507050013 60 191 0.0 0.0 0.00 0.00 0.00 85 1007.5
20260507045913 60 191 0.0 1.0 0.00 0.00 0.00 85 1007.5
20260507045849 60 191 0.0 2.0 0.00 0.00 0.00 85 1007.7
20260507045834 60 191 0.0 2.0 0.00 0.00 0.00 85 1007.6
20260507045513 60 193 0.0 2.0 0.00 0.00 0.00 85 1007.5
20260507045415 60 196 0.0 2.0 0.00 0.00 0.00 85 1007.4
20260507045313 60 198 0.0 2.0 0.00 0.00 0.00 85 1007.7
20260507045213 60 198 0.0 2.0 0.00 0.00 0.00 85 1007.6
20260507045113 59 198 0.0 2.0 0.00 0.00 0.00 85 1007.5
20260507045014 59 202 0.0 2.0 0.00 0.00 0.00 85 1007.3
20260507044915 59 205 2.0 2.0 0.00 0.00 0.00 85 1007.5
20260507044813 59 206 0.0 2.0 0.00 0.00 0.00 85 1007.3
20260507044714 59 192 0.0 4.0 0.00 0.00 0.00 85 1007.5
20260507044650 59 188 0.0 4.0 0.00 0.00 0.00 85 1007.4
20260507044633 59 188 0.0 4.0 0.00 0.00 0.00 85 1007.5
20260507044617 59 187 0.0 4.0 0.00 0.00 0.00 86 1007.4
20260507044553 59 190 0.0 4.0 0.00 0.00 0.00 86 1007.6
20260507044316 59 196 0.0 4.0 0.00 0.00 0.00 86 1007.1
20260507044039 59 201 0.0 4.0 0.00 0.00 0.00 85 1007.3
20260507043813 59 221 3.0 4.0 0.00 0.00 0.00 85 1007.4
20260507043714 59 201 1.0 2.0 0.00 0.00 0.00 85 1007.3
20260507043613 59 206 0.0 2.0 0.00 0.00 0.00 85 1007.4
20260507043514 59 198 0.0 1.0 0.00 0.00 0.00 85 1007.4
20260507043413 59 203 0.0 1.0 0.00 0.00 0.00 85 1007.4
20260507043307 59 201 0.0 1.0 0.00 0.00 0.00 85 1007.4
20260507042920 59 200 0.0 1.0 0.00 0.00 0.00 85 1007.2
20260507042901 60 198 0.0 1.0 0.00 0.00 0.00 85 1007.1
20260507042846 60 199 0.0 1.0 0.00 0.00 0.00 84 1007.4
20260507042831 60 201 0.0 1.0 0.00 0.00 0.00 84 1007.4
20260507042519 60 196 0.0 1.0 0.00 0.00 0.00 84 1007.5
20260507042419 60 169 0.0 1.0 0.00 0.00 0.00 84 1007.3
20260507042351 60 192 0.0 1.0 0.00 0.00 0.00 84 1007.2
20260507042335 60 196 0.0 1.0 0.00 0.00 0.00 84 1007.2
20260507042322 60 221 0.0 1.0 0.00 0.00 0.00 84 1007.2
20260507042007 60 196 0.0 1.0 0.00 0.00 0.00 83 1007.0
20260507041908 60 194 0.0 1.0 0.00 0.00 0.00 83 1007.0
20260507041808 60 194 0.0 1.0 0.00 0.00 0.00 83 1007.2
20260507041707 60 196 0.0 1.0 0.00 0.00 0.00 83 1007.0
20260507041639 60 196 0.0 1.0 0.00 0.00 0.00 83 1007.0
20260507041609 60 223 0.0 1.0 0.00 0.00 0.00 83 1007.3
20260507041507 60 196 0.0 0.0 0.00 0.00 0.00 83 1007.2
20260507041434 60 198 0.0 0.0 0.00 0.00 0.00 83 1007.1
20260507041427 60 196 0.0 0.0 0.00 0.00 0.00 83 1007.1
20260507041412 60 196 0.0 0.0 0.00 0.00 0.00 83 1007.2
20260507041357 60 196 0.0 0.0 0.00 0.00 0.00 83 1007.1
20260507041108 60 197 0.0 0.0 0.00 0.00 0.00 83 1007.2
20260507041007 60 190 0.0 0.0 0.00 0.00 0.00 82 1007.0
20260507040943 60 192 0.0 0.0 0.00 0.00 0.00 82 1006.9
20260507040928 60 198 0.0 0.0 0.00 0.00 0.00 82 1006.9
20260507040639 60 194 0.0 0.0 0.00 0.00 0.00 82 1006.9
20260507040607 60 194 0.0 0.0 0.00 0.00 0.00 82 1007.0
20260507040531 60 194 0.0 0.0 0.00 0.00 0.00 82 1007.1
20260507040516 60 194 0.0 0.0 0.00 0.00 0.00 82 1006.8
20260507040140 60 196 0.0 0.0 0.00 0.00 0.00 82 1007.2
20260507040056 60 191 0.0 0.0 0.00 0.00 0.00 82 1006.9
20260507035957 60 191 0.0 0.0 0.00 0.00 0.00 82 1006.9
20260507035856 60 191 0.0 0.0 0.00 0.00 0.00 82 1007.0
20260507035755 60 191 0.0 0.0 0.00 0.00 0.00 82 1007.0
20260507035726 60 191 0.0 0.0 0.00 0.00 0.00 82 1006.9
20260507035715 60 192 0.0 0.0 0.00 0.00 0.00 82 1007.0
20260507035356 60 191 0.0 0.0 0.00 0.00 0.00 82 1006.9
20260507035255 60 191 0.0 0.0 0.00 0.00 0.00 82 1006.7
20260507035156 60 191 0.0 0.0 0.00 0.00 0.00 82 1006.7
20260507035139 60 192 0.0 0.0 0.00 0.00 0.00 81 1006.7
20260507035055 60 191 0.0 0.0 0.00 0.00 0.00 81 1006.8
20260507034957 60 189 0.0 0.0 0.00 0.00 0.00 81 1006.7
20260507034936 60 190 0.0 1.0 0.00 0.00 0.00 81 1006.8
20260507034928 60 190 0.0 1.0 0.00 0.00 0.00 81 1006.8
20260507034912 60 190 0.0 1.0 0.00 0.00 0.00 81 1006.9
20260507034856 60 190 0.0 1.0 0.00 0.00 0.00 81 1006.8
20260507034555 60 190 0.0 2.0 0.00 0.00 0.00 81 1006.7
20260507034455 60 190 0.0 2.0 0.00 0.00 0.00 81 1006.7
20260507034431 60 190 0.0 3.0 0.00 0.00 0.00 81 1006.9
20260507034415 60 191 0.0 3.0 0.00 0.00 0.00 81 1006.8
20260507034139 60 192 0.0 3.0 0.00 0.00 0.00 81 1006.8
20260507034055 60 196 0.0 3.0 0.00 0.00 0.00 81 1006.6
20260507033956 60 200 0.0 3.0 0.00 0.00 0.00 81 1006.9
20260507033857 60 197 0.0 4.0 0.00 0.00 0.00 80 1006.9
20260507033755 60 194 0.0 4.0 0.00 0.00 0.00 81 1006.9
20260507033655 60 204 0.0 4.0 0.00 0.00 0.00 80 1006.6
20260507033639 60 211 2.0 4.0 0.00 0.00 0.00 80 1006.6
20260507033556 60 196 0.0 4.0 0.00 0.00 0.00 80 1006.8
20260507033456 60 205 0.0 6.0 0.00 0.00 0.00 80 1007.1
20260507033419 60 194 0.0 6.0 0.00 0.00 0.00 80 1006.5
20260507033405 60 202 0.0 6.0 0.00 0.00 0.00 80 1006.7
20260507033130 60 201 0.0 6.0 0.00 0.00 0.00 80 1006.6
20260507033047 60 190 0.0 6.0 0.00 0.00 0.00 80 1006.9
20260507032947 60 205 1.0 6.0 0.00 0.00 0.00 80 1006.6
20260507032845 60 192 0.0 6.0 0.00 0.00 0.00 81 1006.5
20260507032746 60 201 0.0 6.0 0.00 0.00 0.00 81 1006.7
20260507032707 60 187 0.0 6.0 0.00 0.00 0.00 81 1006.7
20260507032657 60 187 0.0 6.0 0.00 0.00 0.00 81 1006.7
20260507032641 60 226 1.0 3.0 0.00 0.00 0.00 81 1006.6
20260507032405 60 216 0.0 3.0 0.00 0.00 0.00 81 1006.8
20260507032127 60 204 0.0 3.0 0.00 0.00 0.00 81 1006.9
20260507032053 60 192 0.0 3.0 0.00 0.00 0.00 82 1006.4
20260507032048 60 206 1.0 3.0 0.00 0.00 0.00 81 1006.9
20260507032032 60 177 0.0 3.0 0.00 0.00 0.00 81 1006.8
20260507032017 60 178 0.0 3.0 0.00 0.00 0.00 82 1006.5
20260507032001 60 232 0.0 3.0 0.00 0.00 0.00 82 1006.7
20260507031944 60 216 1.0 3.0 0.00 0.00 0.00 82 1006.6
20260507031932 60 181 0.0 3.0 0.00 0.00 0.00 82 1006.6
20260507031701 60 195 0.0 3.0 0.00 0.00 0.00 82 1006.7
20260507031645 60 220 0.0 3.0 0.00 0.00 0.00 82 1006.4
20260507031630 60 204 1.0 3.0 0.00 0.00 0.00 82 1006.7
20260507031614 60 190 0.0 3.0 0.00 0.00 0.00 82 1006.7
20260507031345 60 200 0.0 3.0 0.00 0.00 0.00 83 1006.4
20260507030848 60 193 0.0 1.0 0.00 0.00 0.00 83 1006.5
20260507030622 60 194 0.0 1.0 0.00 0.00 0.00 83 1006.4
20260507030521 60 194 0.0 1.0 0.00 0.00 0.00 83 1006.6
20260507030422 60 196 0.0 0.0 0.00 0.00 0.00 83 1006.4
20260507030321 60 197 0.0 1.0 0.00 0.00 0.00 83 1006.4
20260507030222 60 198 0.0 2.0 0.00 0.00 0.00 83 1006.4
20260507030122 60 200 0.0 2.0 0.00 0.00 0.00 83 1006.4
20260507030021 59 197 0.0 2.0 0.00 0.00 0.00 83 1006.5
20260507025921 59 199 0.0 2.0 0.00 0.00 0.00 83 1006.4
20260507025820 59 199 0.0 2.0 0.00 0.00 0.00 83 1006.2
20260507025719 59 199 0.0 2.0 0.00 0.00 0.00 83 1006.0
20260507025619 59 200 0.0 2.0 0.00 0.00 0.00 83 1006.5
20260507025516 59 200 0.0 2.0 0.00 0.00 0.00 83 1006.3
20260507025416 59 200 0.0 2.0 0.00 0.00 0.00 83 1006.4
20260507025315 59 210 1.0 2.0 0.00 0.00 0.00 83 1006.3
20260507025213 59 199 0.0 0.0 0.00 0.00 0.00 83 1006.2
20260507025115 59 199 0.0 0.0 0.00 0.00 0.00 83 1006.2
20260507025049 59 196 0.0 4.0 0.00 0.00 0.00 83 1006.6
20260507025038 59 202 0.0 1.0 0.00 0.00 0.00 83 1006.4
20260507025022 59 201 0.0 4.0 0.00 0.00 0.00 83 1006.3
20260507025006 59 206 0.0 4.0 0.00 0.00 0.00 83 1006.3
20260507024951 59 206 0.0 4.0 0.00 0.00 0.00 83 1006.3
20260507024933 59 196 0.0 4.0 0.00 0.00 0.00 83 1006.6
20260507024706 59 199 0.0 4.0 0.00 0.00 0.00 83 1006.5
20260507024430 59 203 0.0 4.0 0.00 0.00 0.00 83 1006.5
20260507024147 59 208 0.0 4.0 0.00 0.00 0.00 84 1006.6
20260507024129 58 200 1.0 4.0 0.00 0.00 0.00 84 1006.3
20260507023849 58 204 0.0 3.0 0.00 0.00 0.00 85 1006.4
20260507023834 58 200 0.0 3.0 0.00 0.00 0.00 85 1006.6
20260507023608 58 198 0.0 3.0 0.00 0.00 0.00 85 1006.4
20260507023508 58 213 0.0 2.0 0.00 0.00 0.00 86 1006.3
20260507023408 57 192 0.0 0.0 0.00 0.00 0.00 86 1006.2
20260507023309 57 185 0.0 0.0 0.00 0.00 0.00 86 1006.3
20260507023208 57 185 0.0 0.0 0.00 0.00 0.00 86 1006.2
20260507023108 57 185 0.0 0.0 0.00 0.00 0.00 86 1006.3
20260507023008 57 185 0.0 0.0 0.00 0.00 0.00 87 1006.4
20260507022951 56 176 0.0 0.0 0.00 0.00 0.00 90 1006.2
20260507022942 57 185 0.0 0.0 0.00 0.00 0.00 87 1006.5
20260507022927 57 185 0.0 0.0 0.00 0.00 0.00 88 1006.5
20260507022911 57 185 0.0 0.0 0.00 0.00 0.00 88 1006.4
20260507022849 56 185 0.0 0.0 0.00 0.00 0.00 88 1006.4
20260507022833 56 185 0.0 0.0 0.00 0.00 0.00 89 1006.6
20260507022816 56 185 0.0 0.0 0.00 0.00 0.00 89 1006.3
20260507022540 56 180 0.0 0.0 0.00 0.00 0.00 90 1006.2
20260507022008 56 176 0.0 0.0 0.00 0.00 0.00 90 1006.4
20260507021931 56 178 0.0 0.0 0.00 0.00 0.00 91 1006.3
20260507021915 56 177 0.0 0.0 0.00 0.00 0.00 91 1006.4
20260507021555 56 173 0.0 0.0 0.00 0.00 0.00 90 1006.3
20260507021532 56 181 0.0 0.0 0.00 0.00 0.00 90 1006.4
20260507021516 56 184 0.0 0.0 0.00 0.00 0.00 90 1006.2
20260507021155 56 184 0.0 0.0 0.00 0.00 0.00 89 1006.5
20260507021056 56 187 0.0 0.0 0.00 0.00 0.00 88 1006.3
20260507021031 57 187 0.0 0.0 0.00 0.00 0.00 88 1006.4
20260507021016 57 188 0.0 0.0 0.00 0.00 0.00 88 1006.5
20260507020959 57 188 0.0 0.0 0.00 0.00 0.00 88 1006.3
20260507020717 57 188 0.0 0.0 0.00 0.00 0.00 88 1006.3
20260507020415 57 188 0.0 0.0 0.00 0.00 0.00 87 1006.4
20260507020409 57 188 0.0 0.0 0.00 0.00 0.00 87 1006.2
20260507020353 57 188 0.0 0.0 0.00 0.00 0.00 87 1006.4
20260507020336 57 188 0.0 0.0 0.00 0.00 0.00 87 1006.3
20260507020318 57 188 0.0 0.0 0.00 0.00 0.00 87 1006.4
20260507015955 57 187 0.0 0.0 0.00 0.00 0.00 87 1006.3
20260507015855 57 187 0.0 0.0 0.00 0.00 0.00 87 1006.0
20260507015756 57 188 0.0 0.0 0.00 0.00 0.00 86 1006.2
20260507015655 58 187 0.0 0.0 0.00 0.00 0.00 86 1006.4
20260507015556 58 188 0.0 0.0 0.00 0.00 0.00 86 1006.4
20260507015518 58 188 0.0 0.0 0.00 0.00 0.00 86 1006.5
20260507015502 58 188 0.0 0.0 0.00 0.00 0.00 85 1006.2
20260507015446 58 188 0.0 0.0 0.00 0.00 0.00 85 1006.3
20260507015204 58 188 0.0 0.0 0.00 0.00 0.00 85 1006.2
20260507015147 58 187 0.0 0.0 0.00 0.00 0.00 85 1006.2
20260507015131 58 187 0.0 0.0 0.00 0.00 0.00 85 1006.3
20260507014551 58 187 0.0 0.0 0.00 0.00 0.00 85 1006.2
20260507014440 58 187 0.0 0.0 0.00 0.00 0.00 85 1006.0
20260507014415 57 187 0.0 0.0 0.00 0.00 0.00 85 1006.2
20260507014400 57 186 0.0 0.0 0.00 0.00 0.00 86 1006.3
20260507014039 58 186 0.0 0.0 0.00 0.00 0.00 85 1006.2
20260507013939 58 182 0.0 1.0 0.00 0.00 0.00 85 1006.3
20260507013839 57 179 0.0 1.0 0.00 0.00 0.00 85 1006.2
20260507013740 57 184 0.0 1.0 0.00 0.00 0.00 86 1006.3
20260507013639 57 191 0.0 1.0 0.00 0.00 0.00 87 1006.0
20260507013540 57 192 0.0 3.0 0.00 0.00 0.00 87 1006.2
20260507013440 57 192 0.0 3.0 0.00 0.00 0.00 87 1006.0
20260507013340 57 192 0.0 3.0 0.00 0.00 0.00 87 1006.5
20260507013240 57 190 0.0 3.0 0.00 0.00 0.00 86 1005.9
20260507013139 57 181 0.0 3.0 0.00 0.00 0.00 86 1005.9
20260507013039 57 153 0.0 3.0 0.00 0.00 0.00 86 1005.9
20260507012939 57 179 0.0 3.0 0.00 0.00 0.00 86 1006.0
20260507012839 57 192 0.0 3.0 0.00 0.00 0.00 86 1005.8
20260507012740 57 194 0.0 3.0 0.00 0.00 0.00 86 1005.9
20260507012640 58 203 2.0 3.0 0.00 0.00 0.00 85 1006.0
20260507012539 58 175 0.0 0.0 0.00 0.00 0.00 85 1005.9
20260507012439 58 170 0.0 0.0 0.00 0.00 0.00 85 1005.9
20260507012339 57 174 0.0 0.0 0.00 0.00 0.00 85 1005.9
20260507012240 57 181 0.0 0.0 0.00 0.00 0.00 85 1006.0
20260507012224 58 190 0.0 0.0 0.00 0.00 0.00 85 1006.0
20260507012200 58 190 0.0 0.0 0.00 0.00 0.00 85 1006.0
20260507011839 58 191 0.0 0.0 0.00 0.00 0.00 85 1006.3
20260507011739 58 191 0.0 0.0 0.00 0.00 0.00 85 1006.0
20260507011723 58 191 0.0 0.0 0.00 0.00 0.00 85 1005.7
20260507011702 58 191 0.0 0.0 0.00 0.00 0.00 85 1006.2
20260507011646 58 191 0.0 0.0 0.00 0.00 0.00 85 1005.9
20260507011410 58 191 0.0 0.0 0.00 0.00 0.00 84 1006.4
20260507011354 58 191 0.0 0.0 0.00 0.00 0.00 84 1006.2
20260507011330 58 191 0.0 0.0 0.00 0.00 0.00 84 1006.0
20260507010835 58 190 0.0 0.0 0.00 0.00 0.00 84 1006.3
20260507010818 58 188 0.0 0.0 0.00 0.00 0.00 84 1006.0
20260507010551 58 193 0.0 0.0 0.00 0.00 0.00 83 1006.0
20260507010439 58 194 0.0 0.0 0.00 0.00 0.00 83 1005.9
20260507010339 58 190 0.0 0.0 0.00 0.00 0.00 83 1005.9
20260507010239 59 182 0.0 0.0 0.00 0.00 0.00 83 1006.3
20260507010140 59 183 0.0 0.0 0.00 0.00 0.00 82 1005.9
20260507010039 59 192 0.0 0.0 0.00 0.00 0.00 82 1005.9
20260507005940 59 192 0.0 0.0 0.00 0.00 0.00 82 1006.2
20260507005841 59 192 0.0 0.0 0.00 0.00 0.00 82 1006.2
20260507005829 58 193 0.0 0.0 0.00 0.00 0.00 82 1006.3
20260507005820 58 192 0.0 0.0 0.00 0.00 0.00 82 1006.0
20260507005805 58 192 0.0 0.0 0.00 0.00 0.00 82 1006.0
20260507005747 58 193 0.0 0.0 0.00 0.00 0.00 82 1006.3
20260507005439 58 192 0.0 0.0 0.00 0.00 0.00 82 1005.9
20260507005338 59 192 0.0 0.0 0.00 0.00 0.00 82 1006.0
20260507005239 59 192 0.0 0.0 0.00 0.00 0.00 82 1005.7
20260507005138 59 192 0.0 0.0 0.00 0.00 0.00 81 1005.8
20260507005036 59 192 0.0 0.0 0.00 0.00 0.00 81 1005.9
20260507004616 59 190 0.0 0.0 0.00 0.00 0.00 81 1005.9
20260507004516 59 190 0.0 0.0 0.00 0.00 0.00 81 1006.3
20260507004415 59 190 0.0 0.0 0.00 0.00 0.00 81 1005.9
20260507004317 59 190 0.0 0.0 0.00 0.00 0.00 81 1005.9
20260507004216 59 195 0.0 0.0 0.00 0.00 0.00 81 1006.0
20260507004117 59 221 0.0 0.0 0.00 0.00 0.00 80 1005.8
20260507004044 59 184 0.0 0.0 0.00 0.00 0.00 80 1005.9
20260507004029 59 183 0.0 0.0 0.00 0.00 0.00 80 1005.8
20260507004014 59 184 0.0 0.0 0.00 0.00 0.00 80 1006.0
20260507003958 59 184 0.0 0.0 0.00 0.00 0.00 80 1005.8
20260507003731 59 192 0.0 0.0 0.00 0.00 0.00 80 1005.8
20260507003411 60 192 0.0 0.0 0.00 0.00 0.00 79 1006.0
20260507003311 60 192 0.0 0.0 0.00 0.00 0.00 79 1006.2
20260507003212 60 192 0.0 0.0 0.00 0.00 0.00 79 1005.8
20260507003111 60 192 0.0 0.0 0.00 0.00 0.00 79 1006.0
20260507003012 60 192 0.0 0.0 0.00 0.00 0.00 79 1006.2
20260507002911 60 191 0.0 0.0 0.00 0.00 0.00 79 1005.9
20260507002811 60 192 0.0 0.0 0.00 0.00 0.00 79 1006.2
20260507002742 60 197 0.0 0.0 0.00 0.00 0.00 79 1006.0
20260507002726 60 197 0.0 0.0 0.00 0.00 0.00 78 1005.8
20260507002407 60 197 0.0 0.0 0.00 0.00 0.00 78 1005.9
20260507002326 61 193 0.0 0.0 0.00 0.00 0.00 76 1005.7
20260507002305 60 198 0.0 0.0 0.00 0.00 0.00 78 1005.7
20260507002255 60 197 0.0 0.0 0.00 0.00 0.00 78 1005.7
20260507002239 60 197 0.0 0.0 0.00 0.00 0.00 78 1006.0
20260507002223 61 196 0.0 0.0 0.00 0.00 0.00 78 1006.0
20260507002207 61 204 0.0 0.0 0.00 0.00 0.00 78 1005.8
20260507001931 60 189 0.0 0.0 0.00 0.00 0.00 77 1005.8
20260507001925 60 189 0.0 0.0 0.00 0.00 0.00 77 1005.8
20260507001649 60 186 0.0 0.0 0.00 0.00 0.00 77 1005.9
20260507001634 60 178 0.0 0.0 0.00 0.00 0.00 77 1005.7
20260507001617 60 193 0.0 0.0 0.00 0.00 0.00 77 1005.9
20260507001559 60 193 0.0 0.0 0.00 0.00 0.00 77 1005.8
20260507001553 60 193 0.0 0.0 0.00 0.00 0.00 77 1005.8
20260507001317 60 193 0.0 0.0 0.00 0.00 0.00 77 1005.9
20260507001025 61 193 0.0 0.0 0.00 0.00 0.00 77 1005.8
20260507001018 61 193 0.0 0.0 0.00 0.00 0.00 77 1005.8
20260507001003 61 193 0.0 0.0 0.00 0.00 0.00 77 1005.9
20260507000947 61 193 0.0 0.0 0.00 0.00 0.00 76 1006.0
20260507000239 61 193 0.0 0.0 0.00 0.00 0.00 76 1005.7
20260507000223 61 193 0.0 0.0 0.00 0.00 0.00 76 1005.9
20260506235903 61 193 0.0 0.0 0.00 0.00 0.00 76 1005.7
20260506235804 61 193 0.0 0.0 0.00 0.00 0.00 76 1005.8
20260506235711 61 193 0.0 0.0 0.00 0.00 0.00 76 1005.6
20260506235703 61 193 0.0 0.0 0.00 0.00 0.00 76 1005.6
20260506235603 61 193 0.0 0.0 0.00 0.00 0.00 76 1005.8
20260506235504 61 193 0.0 0.0 0.00 0.00 0.00 76 1005.7
20260506235359 61 193 0.0 0.0 0.00 0.00 0.00 76 1005.7
20260506235259 61 193 0.0 0.0 0.00 0.00 0.00 76 1005.8
20260506235241 61 193 0.0 0.0 0.00 0.00 0.00 76 1005.9
20260506235234 61 193 0.0 0.0 0.00 0.00 0.00 76 1005.9
20260506235218 61 193 0.0 0.0 0.00 0.00 0.00 76 1005.9
20260506234900 61 193 0.0 0.0 0.00 0.00 0.00 75 1005.8
20260506234759 62 193 0.0 0.0 0.00 0.00 0.00 75 1006.0
20260506234706 62 193 0.0 0.0 0.00 0.00 0.00 75 1005.9
20260506234700 62 193 0.0 0.0 0.00 0.00 0.00 75 1005.9
20260506234635 62 193 0.0 0.0 0.00 0.00 0.00 75 1005.9
20260506234618 62 193 0.0 0.0 0.00 0.00 0.00 75 1005.8
20260506234259 62 194 0.0 0.0 0.00 0.00 0.00 75 1005.8
20260506234207 62 194 0.0 0.0 0.00 0.00 0.00 75 1006.2
20260506234158 62 194 0.0 0.0 0.00 0.00 0.00 75 1006.2
20260506234100 62 190 0.0 0.0 0.00 0.00 0.00 75 1006.0
20260506233958 62 193 0.0 0.0 0.00 0.00 0.00 74 1005.9
20260506233858 62 193 0.0 0.0 0.00 0.00 0.00 74 1006.0
20260506233759 62 193 0.0 0.0 0.00 0.00 0.00 74 1005.9
20260506233705 62 193 0.0 0.0 0.00 0.00 0.00 74 1006.0
20260506233658 62 193 0.0 0.0 0.00 0.00 0.00 74 1006.0
20260506233557 62 195 0.0 1.0 0.00 0.00 0.00 74 1006.0
20260506233454 63 192 0.0 3.0 0.00 0.00 0.00 74 1005.7
20260506233402 63 198 0.0 6.0 0.00 0.00 0.00 72 1006.0
20260506233357 63 188 0.0 6.0 0.00 0.00 0.00 73 1005.8
20260506233341 63 189 0.0 6.0 0.00 0.00 0.00 73 1005.9
20260506233317 63 189 0.0 6.0 0.00 0.00 0.00 73 1005.9
20260506233302 63 188 0.0 6.0 0.00 0.00 0.00 73 1005.7
20260506233246 63 187 0.0 6.0 0.00 0.00 0.00 73 1006.3
20260506233230 63 186 0.0 6.0 0.00 0.00 0.00 73 1005.8
20260506233215 63 192 0.0 6.0 0.00 0.00 0.00 72 1005.9
20260506232948 63 201 1.0 6.0 0.00 0.00 0.00 72 1006.0
20260506232932 63 187 0.0 6.0 0.00 0.00 0.00 72 1006.0
20260506232657 63 224 0.0 6.0 0.00 0.00 0.00 72 1005.8
20260506232418 63 195 0.0 6.0 0.00 0.00 0.00 72 1006.2
20260506232130 63 196 0.0 6.0 0.00 0.00 0.00 72 1005.5
20260506232113 63 219 0.0 2.0 0.00 0.00 0.00 73 1005.8
20260506231751 63 203 0.0 2.0 0.00 0.00 0.00 72 1005.8
20260506231659 63 219 1.0 2.0 0.00 0.00 0.00 72 1005.9
20260506231651 63 200 0.0 2.0 0.00 0.00 0.00 72 1005.9
20260506231551 63 207 0.0 2.0 0.00 0.00 0.00 72 1005.9
20260506231447 63 196 0.0 2.0 0.00 0.00 0.00 72 1006.2
20260506231347 63 198 0.0 2.0 0.00 0.00 0.00 72 1006.0
20260506231247 63 203 1.0 2.0 0.00 0.00 0.00 72 1006.0
20260506231156 63 202 0.0 1.0 0.00 0.00 0.00 72 1005.9
20260506231146 63 211 0.0 1.0 0.00 0.00 0.00 72 1005.9
20260506231132 63 202 0.0 2.0 0.00 0.00 0.00 73 1005.9
20260506231127 63 206 0.0 3.0 0.00 0.00 0.00 72 1006.0
20260506231117 63 197 0.0 2.0 0.00 0.00 0.00 73 1005.9
20260506231102 63 198 0.0 2.0 0.00 0.00 0.00 73 1006.2
20260506231046 63 198 0.0 2.0 0.00 0.00 0.00 73 1005.8
20260506231030 63 200 0.0 3.0 0.00 0.00 0.00 72 1006.0
20260506231008 63 167 0.0 3.0 0.00 0.00 0.00 72 1005.8
20260506230731 63 199 0.0 3.0 0.00 0.00 0.00 72 1005.7
20260506230455 63 203 0.0 3.0 0.00 0.00 0.00 72 1006.2
20260506230227 63 206 0.0 3.0 0.00 0.00 0.00 72 1006.0
20260506230211 63 210 1.0 3.0 0.00 0.00 0.00 72 1006.2
20260506225947 63 209 0.0 3.0 0.00 0.00 0.00 72 1006.0
20260506225932 63 210 1.0 3.0 0.00 0.00 0.00 72 1005.8
20260506225915 63 224 0.0 2.0 0.00 0.00 0.00 72 1006.0
20260506225646 63 215 0.0 2.0 0.00 0.00 0.00 73 1005.9
20260506225545 62 207 0.0 2.0 0.00 0.00 0.00 72 1006.0
20260506225445 62 221 1.0 2.0 0.00 0.00 0.00 73 1006.3
20260506225345 62 200 0.0 2.0 0.00 0.00 0.00 73 1006.2
20260506225246 62 205 0.0 1.0 0.00 0.00 0.00 73 1006.2
20260506225228 62 205 0.0 1.0 0.00 0.00 0.00 73 1006.0
20260506225221 62 199 0.0 1.0 0.00 0.00 0.00 73 1006.0
20260506225206 62 209 0.0 0.0 0.00 0.00 0.00 74 1006.2
20260506224845 62 196 0.0 0.0 0.00 0.00 0.00 74 1006.0
20260506224746 62 196 0.0 0.0 0.00 0.00 0.00 74 1006.0
20260506224645 62 196 0.0 0.0 0.00 0.00 0.00 74 1006.0
20260506224546 62 196 0.0 0.0 0.00 0.00 0.00 74 1005.9
20260506224444 62 196 0.0 0.0 0.00 0.00 0.00 74 1005.9
20260506224340 62 196 0.0 0.0 0.00 0.00 0.00 73 1006.0
20260506224240 62 196 0.0 0.0 0.00 0.00 0.00 73 1005.7
20260506224222 62 197 0.0 0.0 0.00 0.00 0.00 73 1006.0
20260506224216 62 197 0.0 0.0 0.00 0.00 0.00 74 1006.0
20260506224200 62 198 0.0 0.0 0.00 0.00 0.00 74 1005.9
20260506223835 62 184 0.0 0.0 0.00 0.00 0.00 74 1005.8
20260506223734 62 182 0.0 0.0 0.00 0.00 0.00 75 1005.8
20260506223634 63 188 0.0 0.0 0.00 0.00 0.00 74 1005.9
20260506223612 64 201 0.0 1.0 0.00 0.00 0.00 69 1006.0
20260506223603 63 195 0.0 0.0 0.00 0.00 0.00 72 1005.8
20260506223547 63 195 0.0 0.0 0.00 0.00 0.00 71 1005.9
20260506223530 63 199 0.0 0.0 0.00 0.00 0.00 71 1006.0
20260506223306 63 200 0.0 0.0 0.00 0.00 0.00 71 1005.8
20260506223249 63 200 0.0 0.0 0.00 0.00 0.00 71 1005.8
20260506223242 63 201 0.0 0.0 0.00 0.00 0.00 71 1005.9
20260506223228 63 204 0.0 0.0 0.00 0.00 0.00 71 1005.8
20260506223213 63 203 0.0 0.0 0.00 0.00 0.00 71 1005.7
20260506223157 63 186 0.0 0.0 0.00 0.00 0.00 71 1005.8
20260506222921 63 186 0.0 1.0 0.00 0.00 0.00 71 1005.7
20260506222915 63 186 0.0 1.0 0.00 0.00 0.00 71 1005.8
20260506222859 63 189 0.0 1.0 0.00 0.00 0.00 71 1005.9
20260506222844 64 192 0.0 1.0 0.00 0.00 0.00 71 1005.7
20260506222827 64 196 0.0 1.0 0.00 0.00 0.00 70 1005.9
20260506222034 64 201 0.0 1.0 0.00 0.00 0.00 69 1005.7
20260506221935 64 206 0.0 1.0 0.00 0.00 0.00 69 1005.9
20260506221834 64 209 0.0 1.0 0.00 0.00 0.00 69 1005.9
20260506221733 64 208 0.0 1.0 0.00 0.00 0.00 69 1005.7
20260506221716 64 199 0.0 1.0 0.00 0.00 0.00 69 1005.7
20260506221710 64 198 0.0 1.0 0.00 0.00 0.00 69 1005.9
20260506221654 64 198 0.0 1.0 0.00 0.00 0.00 69 1005.8
20260506221334 64 199 0.0 1.0 0.00 0.00 0.00 68 1005.7
20260506221234 64 199 0.0 1.0 0.00 0.00 0.00 68 1005.9
20260506221213 64 200 0.0 1.0 0.00 0.00 0.00 68 1005.9
20260506221205 64 200 0.0 1.0 0.00 0.00 0.00 69 1005.8
20260506221148 64 200 0.0 0.0 0.00 0.00 0.00 69 1005.9
20260506221134 64 198 0.0 0.0 0.00 0.00 0.00 69 1005.8
20260506221120 64 187 0.0 0.0 0.00 0.00 0.00 69 1005.9
20260506220844 64 188 0.0 1.0 0.00 0.00 0.00 69 1006.0
20260506220533 64 188 0.0 1.0 0.00 0.00 0.00 69 1005.6
20260506220518 64 186 0.0 1.0 0.00 0.00 0.00 68 1005.7
20260506220508 64 189 0.0 1.0 0.00 0.00 0.00 69 1005.7
20260506220452 64 190 0.0 1.0 0.00 0.00 0.00 69 1005.6
20260506220437 64 186 0.0 1.0 0.00 0.00 0.00 68 1005.7
20260506220207 64 186 0.0 1.0 0.00 0.00 0.00 68 1005.8
20260506220152 64 186 0.0 1.0 0.00 0.00 0.00 68 1005.7
20260506220136 64 187 0.0 1.0 0.00 0.00 0.00 68 1005.7
20260506215900 64 189 0.0 0.0 0.00 0.00 0.00 68 1005.9
20260506215844 64 189 0.0 0.0 0.00 0.00 0.00 68 1005.8
20260506215506 64 187 0.0 0.0 0.00 0.00 0.00 69 1005.8
20260506215436 64 190 0.0 0.0 0.00 0.00 0.00 69 1005.9
20260506215428 64 190 0.0 0.0 0.00 0.00 0.00 69 1005.7
20260506215413 64 191 0.0 0.0 0.00 0.00 0.00 69 1005.8
20260506215356 64 191 0.0 0.0 0.00 0.00 0.00 69 1005.9
20260506215105 65 190 0.0 0.0 0.00 0.00 0.00 68 1006.0
20260506215006 65 188 0.0 1.0 0.00 0.00 0.00 68 1005.8
20260506214904 65 186 0.0 1.0 0.00 0.00 0.00 68 1005.9
20260506214805 65 186 0.0 1.0 0.00 0.00 0.00 67 1005.8
20260506214705 65 178 0.0 1.0 0.00 0.00 0.00 67 1005.9
20260506214638 65 191 0.0 1.0 0.00 0.00 0.00 67 1005.9
20260506214605 65 221 0.0 1.0 0.00 0.00 0.00 67 1005.9
20260506214505 65 196 0.0 1.0 0.00 0.00 0.00 67 1005.9
20260506214443 65 197 0.0 1.0 0.00 0.00 0.00 67 1006.0
20260506214427 65 194 0.0 1.0 0.00 0.00 0.00 67 1005.8
20260506214410 65 194 0.0 1.0 0.00 0.00 0.00 67 1005.7
20260506214355 65 194 0.0 1.0 0.00 0.00 0.00 66 1005.7
20260506214125 65 188 0.0 0.0 0.00 0.00 0.00 66 1005.8
20260506213804 65 188 0.0 0.0 0.00 0.00 0.00 66 1005.8
20260506213704 65 188 0.0 0.0 0.00 0.00 0.00 66 1005.6
20260506213637 66 188 0.0 0.0 0.00 0.00 0.00 66 1005.6
20260506213605 66 188 0.0 0.0 0.00 0.00 0.00 66 1005.8
20260506213541 66 186 0.0 0.0 0.00 0.00 0.00 66 1005.7
20260506213524 66 186 0.0 0.0 0.00 0.00 0.00 66 1005.7
20260506213136 66 186 0.0 0.0 0.00 0.00 0.00 66 1006.0
20260506213104 66 186 0.0 0.0 0.00 0.00 0.00 66 1005.8
20260506213005 66 186 0.0 0.0 0.00 0.00 0.00 66 1005.8
20260506212903 66 189 0.0 0.0 0.00 0.00 0.00 66 1005.9
20260506212803 66 184 0.0 0.0 0.00 0.00 0.00 66 1005.9
20260506212717 66 180 0.0 0.0 0.00 0.00 0.00 66 1005.9
20260506212703 66 181 0.0 0.0 0.00 0.00 0.00 66 1005.9
20260506212654 66 181 0.0 0.0 0.00 0.00 0.00 66 1005.8
20260506212637 66 179 0.0 0.0 0.00 0.00 0.00 66 1005.9
20260506212620 66 182 0.0 0.0 0.00 0.00 0.00 66 1005.7
20260506212605 66 184 0.0 0.0 0.00 0.00 0.00 65 1005.8
20260506212328 66 183 0.0 1.0 0.00 0.00 0.00 65 1005.8
20260506212318 66 163 0.0 1.0 0.00 0.00 0.00 65 1005.7
20260506212305 66 185 0.0 1.0 0.00 0.00 0.00 65 1005.9
20260506211817 66 183 0.0 1.0 0.00 0.00 0.00 65 1005.7
20260506211750 66 183 0.0 1.0 0.00 0.00 0.00 65 1005.8
20260506211739 67 177 0.0 3.0 0.00 0.00 0.00 65 1005.8
20260506211515 67 170 0.0 3.0 0.00 0.00 0.00 65 1005.7
20260506211500 67 181 0.0 3.0 0.00 0.00 0.00 65 1005.9
20260506211443 67 182 0.0 3.0 0.00 0.00 0.00 65 1006.0
20260506211426 67 191 0.0 3.0 0.00 0.00 0.00 65 1005.9
20260506211413 67 189 0.0 3.0 0.00 0.00 0.00 65 1005.9
20260506211143 67 183 0.0 3.0 0.00 0.00 0.00 65 1005.7
20260506211127 67 180 0.0 4.0 0.00 0.00 0.00 65 1005.7
20260506210852 67 165 2.0 4.0 0.00 0.00 0.00 64 1005.9
20260506210625 67 187 0.0 4.0 0.00 0.00 0.00 64 1005.7
20260506210609 67 210 2.0 4.0 0.00 0.00 0.00 64 1005.9
20260506210247 67 199 2.0 4.0 0.00 0.00 0.00 64 1005.6
20260506210149 67 210 2.0 4.0 0.00 0.00 0.00 64 1005.6
20260506210135 67 203 0.0 4.0 0.00 0.00 0.00 64 1005.6
20260506210125 67 198 0.0 4.0 0.00 0.00 0.00 64 1006.0
20260506210108 67 211 3.0 4.0 0.00 0.00 0.00 64 1005.7
20260506205748 67 196 2.0 3.0 0.00 0.00 0.00 65 1005.8
20260506205648 67 196 0.0 2.0 0.00 0.00 0.00 65 1005.8
20260506205633 67 204 0.0 2.0 0.00 0.00 0.00 65 1005.8
20260506205547 67 203 0.0 2.0 0.00 0.00 0.00 65 1005.6
20260506205533 66 188 0.0 1.0 0.00 0.00 0.00 65 1005.6
20260506205523 66 203 0.0 2.0 0.00 0.00 0.00 65 1006.0
20260506205508 66 192 1.0 2.0 0.00 0.00 0.00 65 1005.7
20260506205451 66 206 0.0 1.0 0.00 0.00 0.00 65 1005.7
20260506205436 66 180 0.0 1.0 0.00 0.00 0.00 65 1005.7
20260506205206 66 184 0.0 1.0 0.00 0.00 0.00 65 1005.6
20260506204846 66 190 0.0 1.0 0.00 0.00 0.00 65 1005.8
20260506204745 66 186 0.0 1.0 0.00 0.00 0.00 65 1005.5
20260506204630 66 185 0.0 1.0 0.00 0.00 0.00 65 1005.6
20260506204545 66 185 0.0 1.0 0.00 0.00 0.00 65 1005.6
20260506204445 66 184 0.0 1.0 0.00 0.00 0.00 65 1005.6
20260506204344 66 194 0.0 1.0 0.00 0.00 0.00 65 1005.8
20260506204318 66 185 0.0 1.0 0.00 0.00 0.00 65 1005.8
20260506204247 66 195 0.0 1.0 0.00 0.00 0.00 65 1005.6
20260506204237 66 178 0.0 1.0 0.00 0.00 0.00 65 1005.6
20260506204221 66 180 0.0 1.0 0.00 0.00 0.00 65 1005.7
20260506203642 66 160 0.0 1.0 0.00 0.00 0.00 65 1005.7
20260506203625 66 165 0.0 1.0 0.00 0.00 0.00 65 1005.6
20260506203539 66 182 0.0 1.0 0.00 0.00 0.00 65 1005.6
20260506203437 66 176 0.0 1.0 0.00 0.00 0.00 65 1005.5
20260506203335 66 162 0.0 1.0 0.00 0.00 0.00 65 1005.6
20260506203235 66 169 0.0 1.0 0.00 0.00 0.00 65 1005.5
20260506203136 66 118 0.0 1.0 0.00 0.00 0.00 65 1005.6
20260506203120 66 118 0.0 1.0 0.00 0.00 0.00 65 1005.5
20260506203036 66 172 0.0 1.0 0.00 0.00 0.00 65 1005.5
20260506202935 67 173 0.0 1.0 0.00 0.00 0.00 65 1005.6
20260506202922 67 168 0.0 2.0 0.00 0.00 0.00 64 1005.5
20260506202912 67 170 0.0 2.0 0.00 0.00 0.00 65 1005.5
20260506202856 67 175 0.0 2.0 0.00 0.00 0.00 64 1005.4
20260506202839 67 166 0.0 2.0 0.00 0.00 0.00 64 1005.3
20260506202613 67 170 0.0 2.0 0.00 0.00 0.00 64 1005.5
20260506202557 67 174 0.0 2.0 0.00 0.00 0.00 64 1005.4
20260506202235 67 164 0.0 2.0 0.00 0.00 0.00 64 1005.6
20260506202137 67 138 1.0 2.0 0.00 0.00 0.00 64 1005.6
20260506202119 67 156 0.0 2.0 0.00 0.00 0.00 64 1005.6
20260506202036 67 195 0.0 2.0 0.00 0.00 0.00 64 1005.6
20260506202010 67 166 0.0 2.0 0.00 0.00 0.00 64 1005.4
20260506201955 67 147 0.0 1.0 0.00 0.00 0.00 64 1005.5
20260506201634 67 172 0.0 1.0 0.00 0.00 0.00 64 1005.7
20260506201618 67 172 0.0 1.0 0.00 0.00 0.00 64 1005.6
20260506201535 67 169 0.0 1.0 0.00 0.00 0.00 64 1005.6
20260506201433 67 173 0.0 1.0 0.00 0.00 0.00 64 1005.7
20260506201333 67 168 0.0 2.0 0.00 0.00 0.00 64 1005.3
20260506201233 67 171 0.0 2.0 0.00 0.00 0.00 64 1005.4
20260506201133 67 175 0.0 4.0 0.00 0.00 0.00 64 1005.5
20260506201115 67 182 0.0 4.0 0.00 0.00 0.00 64 1005.5
20260506201029 67 165 0.0 4.0 0.00 0.00 0.00 64 1005.4
20260506200929 67 169 0.0 4.0 0.00 0.00 0.00 63 1005.3
20260506200829 67 178 0.0 4.0 0.00 0.00 0.00 63 1005.5
20260506200802 67 179 0.0 4.0 0.00 0.00 0.00 63 1005.5
20260506200735 67 184 0.0 4.0 0.00 0.00 0.00 63 1005.6
20260506200725 68 168 0.0 4.0 0.00 0.00 0.00 63 1005.4
20260506200708 68 171 0.0 4.0 0.00 0.00 0.00 63 1005.4
20260506200434 68 190 0.0 4.0 0.00 0.00 0.00 63 1005.4
20260506200417 68 206 2.0 4.0 0.00 0.00 0.00 63 1005.4
20260506200404 68 192 0.0 4.0 0.00 0.00 0.00 63 1005.4
20260506195906 68 192 0.0 6.0 0.00 0.00 0.00 63 1005.5
20260506195851 68 206 0.0 6.0 0.00 0.00 0.00 62 1005.4
20260506195612 68 196 0.0 6.0 0.00 0.00 0.00 62 1005.2
20260506195527 68 199 0.0 7.0 0.00 0.00 0.00 62 1005.5
20260506195427 68 201 0.0 7.0 0.00 0.00 0.00 62 1005.5
20260506195328 68 217 3.0 7.0 0.00 0.00 0.00 62 1005.4
20260506195215 68 203 2.0 7.0 0.00 0.00 0.00 62 1005.5
20260506195115 68 212 2.0 7.0 0.00 0.00 0.00 62 1005.5
20260506195015 68 218 5.0 7.0 0.00 0.00 0.00 62 1005.5
20260506194913 68 192 0.0 7.0 0.00 0.00 0.00 62 1005.4
20260506194810 68 190 0.0 7.0 0.00 0.00 0.00 62 1005.4
20260506194711 68 178 1.0 7.0 0.00 0.00 0.00 62 1005.4
20260506194610 68 237 3.0 7.0 0.00 0.00 0.00 62 1005.4
20260506194510 68 234 1.0 8.0 0.00 0.00 0.00 62 1005.3
20260506194454 68 220 2.0 8.0 0.00 0.00 0.00 62 1005.5
20260506194438 69 225 2.0 8.0 0.00 0.00 0.00 61 1005.6
20260506194422 69 220 2.0 8.0 0.00 0.00 0.00 61 1005.5
20260506194357 68 186 0.0 8.0 0.00 0.00 0.00 61 1005.6
20260506194117 68 235 2.0 8.0 0.00 0.00 0.00 61 1005.5
20260506193839 68 200 0.0 8.0 0.00 0.00 0.00 61 1005.4
20260506193611 68 233 5.0 8.0 0.00 0.00 0.00 61 1005.4
20260506193511 68 191 0.0 8.0 0.00 0.00 0.00 61 1005.3
20260506193409 69 186 0.0 8.0 0.00 0.00 0.00 61 1005.3
20260506193309 69 224 1.0 8.0 0.00 0.00 0.00 61 1005.7
20260506193209 69 237 0.0 10.0 0.00 0.00 0.00 61 1005.5
20260506193105 69 250 4.0 10.0 0.00 0.00 0.00 61 1005.4
20260506193006 69 223 2.0 10.0 0.00 0.00 0.00 61 1005.4
20260506192906 69 203 0.0 10.0 0.00 0.00 0.00 61 1005.5
20260506192849 69 200 0.0 10.0 0.00 0.00 0.00 60 1005.5
20260506192833 69 227 4.0 10.0 0.00 0.00 0.00 60 1005.5
20260506192606 69 200 1.0 10.0 0.00 0.00 0.00 61 1005.3
20260506192505 69 190 1.0 10.0 0.00 0.00 0.00 61 1005.4
20260506192408 69 205 4.0 10.0 0.00 0.00 0.00 61 1005.4
20260506192352 69 184 0.0 10.0 0.00 0.00 0.00 60 1005.3
20260506192336 69 207 1.0 9.0 0.00 0.00 0.00 61 1005.4
20260506192106 69 200 1.0 9.0 0.00 0.00 0.00 61 1005.4
20260506192006 69 211 1.0 9.0 0.00 0.00 0.00 60 1005.4
20260506191904 69 203 5.0 9.0 0.00 0.00 0.00 60 1005.3
20260506191805 69 198 1.0 9.0 0.00 0.00 0.00 60 1005.3
20260506191704 69 199 1.0 9.0 0.00 0.00 0.00 60 1005.4
20260506191605 69 203 3.0 9.0 0.00 0.00 0.00 60 1005.4
20260506191504 69 221 4.0 8.0 0.00 0.00 0.00 60 1005.4
20260506191404 69 194 2.0 8.0 0.00 0.00 0.00 60 1005.5
20260506191342 69 215 4.0 8.0 0.00 0.00 0.00 60 1005.6
20260506191327 69 230 5.0 8.0 0.00 0.00 0.00 60 1005.2
20260506191302 69 222 4.0 8.0 0.00 0.00 0.00 60 1005.4
20260506191247 69 213 3.0 8.0 0.00 0.00 0.00 60 1005.3
20260506190704 69 233 2.0 8.0 0.00 0.00 0.00 59 1005.3
20260506190617 69 250 3.0 8.0 0.00 0.00 0.00 59 1005.3
20260506190504 69 200 0.0 8.0 0.00 0.00 0.00 59 1005.2
20260506190404 69 216 4.0 8.0 0.00 0.00 0.00 59 1005.3
20260506190305 69 217 4.0 8.0 0.00 0.00 0.00 59 1005.4
20260506190205 69 207 5.0 8.0 0.00 0.00 0.00 59 1005.2
20260506190134 69 198 2.0 8.0 0.00 0.00 0.00 60 1005.2
20260506190118 69 200 2.0 8.0 0.00 0.00 0.00 60 1005.2
20260506185758 69 188 1.0 8.0 0.00 0.00 0.00 59 1005.4
20260506185657 69 222 5.0 8.0 0.00 0.00 0.00 59 1005.2
20260506185558 69 216 2.0 7.0 0.00 0.00 0.00 60 1005.2
20260506185521 69 234 2.0 7.0 0.00 0.00 0.00 59 1005.2
20260506185505 69 226 2.0 7.0 0.00 0.00 0.00 60 1005.1
20260506185450 69 214 2.0 7.0 0.00 0.00 0.00 60 1005.1
20260506185434 69 211 2.0 9.0 0.00 0.00 0.00 60 1005.4
20260506185411 69 214 2.0 9.0 0.00 0.00 0.00 60 1005.2
20260506184913 69 228 4.0 9.0 0.00 0.00 0.00 60 1005.0
20260506184856 69 206 0.0 9.0 0.00 0.00 0.00 60 1005.1
20260506184628 69 200 1.0 9.0 0.00 0.00 0.00 60 1005.3
20260506184612 69 223 3.0 9.0 0.00 0.00 0.00 60 1005.3
20260506184254 69 190 0.0 9.0 0.00 0.00 0.00 60 1005.3
20260506184152 69 208 3.0 8.0 0.00 0.00 0.00 60 1005.2
20260506184052 69 211 1.0 6.0 0.00 0.00 0.00 60 1005.2
20260506183952 70 192 0.0 6.0 0.00 0.00 0.00 60 1004.9
20260506183852 70 192 0.0 6.0 0.00 0.00 0.00 60 1005.2
20260506183752 70 185 0.0 6.0 0.00 0.00 0.00 60 1005.1
20260506183734 70 190 0.0 6.0 0.00 0.00 0.00 60 1004.9
20260506183712 70 201 0.0 6.0 0.00 0.00 0.00 60 1005.2
20260506183353 70 197 1.0 6.0 0.00 0.00 0.00 60 1005.2
20260506183253 70 231 3.0 6.0 0.00 0.00 0.00 60 1004.9
20260506183155 70 194 0.0 3.0 0.00 0.00 0.00 60 1005.0
20260506183131 70 205 2.0 3.0 0.00 0.00 0.00 60 1005.2
20260506183114 70 200 0.0 4.0 0.00 0.00 0.00 60 1005.2
20260506182753 70 214 3.0 7.0 0.00 0.00 0.00 60 1005.0
20260506182737 70 198 1.0 9.0 0.00 0.00 0.00 60 1005.2
20260506182713 70 222 0.0 9.0 0.00 0.00 0.00 60 1004.9
20260506182353 70 196 1.0 11.0 0.00 0.00 0.00 60 1005.1
20260506182253 70 210 2.0 11.0 0.00 0.00 0.00 60 1005.1
20260506182152 70 225 1.0 11.0 0.00 0.00 0.00 60 1004.9
20260506182053 70 211 3.0 11.0 0.00 0.00 0.00 60 1005.1
20260506181952 70 201 5.0 11.0 0.00 0.00 0.00 60 1004.9
20260506181854 70 212 2.0 11.0 0.00 0.00 0.00 60 1004.9
20260506181752 70 233 4.0 11.0 0.00 0.00 0.00 59 1004.9
20260506181734 70 179 1.0 11.0 0.00 0.00 0.00 60 1004.9
20260506181712 70 198 3.0 11.0 0.00 0.00 0.00 59 1004.9
20260506181352 71 201 1.0 11.0 0.00 0.00 0.00 59 1004.8
20260506181252 70 191 2.0 11.0 0.00 0.00 0.00 59 1005.0
20260506181151 70 210 4.0 11.0 0.00 0.00 0.00 59 1004.6
20260506181141 71 222 2.0 6.0 0.00 0.00 0.00 59 1004.6
20260506181123 70 202 1.0 11.0 0.00 0.00 0.00 59 1004.9
20260506181108 70 198 2.0 11.0 0.00 0.00 0.00 59 1004.8
20260506181052 71 189 3.0 11.0 0.00 0.00 0.00 59 1005.0
20260506181037 71 175 0.0 11.0 0.00 0.00 0.00 59 1004.9
20260506180759 71 222 2.0 6.0 0.00 0.00 0.00 59 1004.6
20260506180523 71 190 0.0 6.0 0.00 0.00 0.00 59 1004.8
20260506180508 71 191 1.0 6.0 0.00 0.00 0.00 59 1005.0
20260506180148 71 194 2.0 6.0 0.00 0.00 0.00 59 1004.8
20260506180122 71 202 0.0 6.0 0.00 0.00 0.00 59 1004.8
20260506180107 71 190 2.0 6.0 0.00 0.00 0.00 58 1004.6
20260506175747 71 189 1.0 6.0 0.00 0.00 0.00 58 1004.9
20260506175730 71 212 2.0 6.0 0.00 0.00 0.00 58 1004.9
20260506175708 71 202 0.0 4.0 0.00 0.00 0.00 58 1004.9
20260506175425 71 198 2.0 4.0 0.00 0.00 0.00 57 1004.8
20260506175409 71 191 0.0 4.0 0.00 0.00 0.00 57 1005.1
20260506175125 71 199 2.0 4.0 0.00 0.00 0.00 57 1004.9
20260506175109 71 198 1.0 4.0 0.00 0.00 0.00 57 1005.0
20260506174748 71 200 1.0 6.0 0.00 0.00 0.00 57 1005.0
20260506174649 71 183 0.0 6.0 0.00 0.00 0.00 57 1005.0
20260506174548 72 204 1.0 6.0 0.00 0.00 0.00 57 1005.0
20260506174449 72 189 0.0 6.0 0.00 0.00 0.00 56 1004.8
20260506174347 72 215 0.0 6.0 0.00 0.00 0.00 56 1004.7
20260506174247 72 178 0.0 6.0 0.00 0.00 0.00 56 1004.8
20260506174148 72 179 2.0 7.0 0.00 0.00 0.00 56 1004.8
20260506174048 72 189 0.0 7.0 0.00 0.00 0.00 57 1004.6
20260506173948 72 199 3.0 8.0 0.00 0.00 0.00 56 1004.6
20260506173847 72 187 1.0 8.0 0.00 0.00 0.00 56 1004.8
20260506173747 72 186 0.0 8.0 0.00 0.00 0.00 56 1004.7
20260506173647 72 178 1.0 8.0 0.00 0.00 0.00 56 1005.0
20260506173547 72 187 1.0 8.0 0.00 0.00 0.00 56 1004.8
20260506173447 72 200 0.0 8.0 0.00 0.00 0.00 57 1004.8
20260506173348 72 193 0.0 8.0 0.00 0.00 0.00 56 1004.6
20260506173332 72 114 0.0 8.0 0.00 0.00 0.00 55 1004.7
20260506173316 72 212 2.0 8.0 0.00 0.00 0.00 56 1004.9
20260506173047 72 181 1.0 8.0 0.00 0.00 0.00 56 1004.6
20260506172948 72 196 1.0 8.0 0.00 0.00 0.00 55 1004.6
20260506172847 72 182 1.0 8.0 0.00 0.00 0.00 56 1004.7
20260506172747 72 200 0.0 8.0 0.00 0.00 0.00 56 1004.7
20260506172647 72 180 0.0 8.0 0.00 0.00 0.00 56 1004.8
20260506172546 72 182 0.0 8.0 0.00 0.00 0.00 55 1004.5
20260506172448 73 200 0.0 8.0 0.00 0.00 0.00 55 1004.8
20260506172348 73 206 2.0 9.0 0.00 0.00 0.00 55 1004.8
20260506172331 73 199 0.0 9.0 0.00 0.00 0.00 55 1004.8
20260506172315 73 207 5.0 9.0 0.00 0.00 0.00 55 1004.8
20260506172250 73 187 1.0 9.0 0.00 0.00 0.00 55 1005.0
20260506172009 73 195 2.0 9.0 0.00 0.00 0.00 55 1004.7
20260506171737 73 194 0.0 4.0 0.00 0.00 0.00 55 1004.8
20260506171731 73 190 1.0 8.0 0.00 0.00 0.00 55 1005.2
20260506171722 73 188 0.0 9.0 0.00 0.00 0.00 55 1004.9
20260506171700 73 209 2.0 9.0 0.00 0.00 0.00 55 1005.0
20260506171643 73 214 5.0 9.0 0.00 0.00 0.00 55 1005.0
20260506171627 73 203 1.0 8.0 0.00 0.00 0.00 55 1004.9
20260506171611 73 208 0.0 8.0 0.00 0.00 0.00 55 1004.7
20260506171556 73 212 0.0 8.0 0.00 0.00 0.00 55 1005.0
20260506171536 73 190 1.0 8.0 0.00 0.00 0.00 55 1005.2
20260506171051 73 202 3.0 8.0 0.00 0.00 0.00 55 1004.8
20260506170828 73 221 5.0 8.0 0.00 0.00 0.00 55 1005.0
20260506170812 73 217 2.0 3.0 0.00 0.00 0.00 56 1004.8
20260506170755 73 194 0.0 4.0 0.00 0.00 0.00 55 1004.8
20260506170445 73 224 2.0 4.0 0.00 0.00 0.00 55 1005.0
20260506170345 73 203 1.0 4.0 0.00 0.00 0.00 56 1004.9
20260506170244 73 109 0.0 4.0 0.00 0.00 0.00 55 1004.9
20260506170145 73 190 0.0 4.0 0.00 0.00 0.00 55 1004.9
20260506170059 73 196 0.0 4.0 0.00 0.00 0.00 55 1005.1
20260506165946 73 217 0.0 4.0 0.00 0.00 0.00 55 1005.0
20260506165916 73 211 0.0 4.0 0.00 0.00 0.00 55 1004.8
20260506165901 73 214 0.0 4.0 0.00 0.00 0.00 55 1004.8
20260506165542 73 232 1.0 3.0 0.00 0.00 0.00 55 1004.8
20260506165443 73 222 2.0 3.0 0.00 0.00 0.00 55 1004.6
20260506165346 73 268 0.0 1.0 0.00 0.00 0.00 55 1004.9
20260506165323 73 201 1.0 1.0 0.00 0.00 0.00 55 1004.9
20260506165308 73 195 0.0 0.0 0.00 0.00 0.00 55 1004.9
20260506165040 73 191 0.0 0.0 0.00 0.00 0.00 55 1004.9
20260506164630 73 189 0.0 6.0 0.00 0.00 0.00 54 1004.8
20260506164529 73 196 0.0 6.0 0.00 0.00 0.00 54 1004.9
20260506164429 73 216 1.0 6.0 0.00 0.00 0.00 54 1004.9
20260506164329 73 207 4.0 6.0 0.00 0.00 0.00 54 1004.9
20260506164229 73 203 0.0 6.0 0.00 0.00 0.00 54 1005.1
20260506164129 73 180 0.0 6.0 0.00 0.00 0.00 54 1004.9
20260506164028 73 181 0.0 8.0 0.00 0.00 0.00 54 1004.8
20260506163929 73 222 1.0 8.0 0.00 0.00 0.00 54 1004.9
20260506163828 73 175 0.0 8.0 0.00 0.00 0.00 54 1005.1
20260506163729 73 176 0.0 8.0 0.00 0.00 0.00 54 1004.9
20260506163630 73 183 0.0 8.0 0.00 0.00 0.00 54 1005.0
20260506163528 73 177 0.0 8.0 0.00 0.00 0.00 54 1005.0
20260506163429 73 195 0.0 8.0 0.00 0.00 0.00 54 1005.0
20260506163329 73 240 1.0 8.0 0.00 0.00 0.00 54 1004.8
20260506163228 73 121 0.0 8.0 0.00 0.00 0.00 54 1004.9
20260506163128 73 196 3.0 8.0 0.00 0.00 0.00 54 1004.9
20260506163028 73 218 2.0 6.0 0.00 0.00 0.00 54 1005.0
20260506162928 73 188 0.0 6.0 0.00 0.00 0.00 54 1004.9
20260506162905 73 177 1.0 6.0 0.00 0.00 0.00 54 1005.1
20260506162848 73 189 0.0 6.0 0.00 0.00 0.00 54 1005.2
20260506162529 73 189 0.0 6.0 0.00 0.00 0.00 54 1005.0
20260506162428 73 229 2.0 6.0 0.00 0.00 0.00 54 1004.9
20260506162330 73 175 2.0 6.0 0.00 0.00 0.00 54 1005.1
20260506162228 73 188 0.0 6.0 0.00 0.00 0.00 54 1005.3
20260506162128 73 180 0.0 4.0 0.00 0.00 0.00 54 1005.4
20260506162041 73 219 3.0 7.0 0.00 0.00 0.00 54 1005.2
20260506161929 73 207 1.0 8.0 0.00 0.00 0.00 54 1005.0
20260506161824 74 187 1.0 8.0 0.00 0.00 0.00 53 1005.0
20260506161724 74 183 0.0 8.0 0.00 0.00 0.00 54 1005.2
20260506161624 74 190 0.0 8.0 0.00 0.00 0.00 54 1005.2
20260506161525 74 185 0.0 8.0 0.00 0.00 0.00 54 1005.1
20260506161425 74 196 0.0 8.0 0.00 0.00 0.00 54 1005.1
20260506161414 74 199 0.0 6.0 0.00 0.00 0.00 53 1005.0
20260506161409 74 210 0.0 3.0 0.00 0.00 0.00 52 1005.2
20260506161401 74 193 0.0 6.0 0.00 0.00 0.00 51 1005.3
20260506161355 74 196 1.0 8.0 0.00 0.00 0.00 53 1005.2
20260506161337 74 188 0.0 8.0 0.00 0.00 0.00 54 1005.4
20260506161321 74 190 0.0 8.0 0.00 0.00 0.00 54 1005.1
20260506161259 74 228 3.0 6.0 0.00 0.00 0.00 53 1005.1
20260506161242 74 196 0.0 6.0 0.00 0.00 0.00 53 1005.2
20260506161226 74 196 0.0 6.0 0.00 0.00 0.00 53 1005.2
20260506161211 74 188 0.0 6.0 0.00 0.00 0.00 54 1005.3
20260506161155 74 192 0.0 6.0 0.00 0.00 0.00 54 1005.0
20260506161138 74 199 0.0 6.0 0.00 0.00 0.00 53 1005.0
20260506160912 74 212 0.0 6.0 0.00 0.00 0.00 53 1005.2
20260506160854 74 194 1.0 6.0 0.00 0.00 0.00 53 1005.0
20260506160839 74 190 0.0 6.0 0.00 0.00 0.00 53 1005.1
20260506160556 74 182 0.0 3.0 0.00 0.00 0.00 53 1005.2
20260506160101 74 189 0.0 3.0 0.00 0.00 0.00 52 1005.1
20260506155824 74 210 0.0 3.0 0.00 0.00 0.00 52 1005.2
20260506155538 74 178 0.0 3.0 0.00 0.00 0.00 52 1005.2
20260506155522 74 205 0.0 3.0 0.00 0.00 0.00 52 1005.2
20260506155507 74 204 1.0 3.0 0.00 0.00 0.00 52 1005.0
20260506155445 74 192 0.0 3.0 0.00 0.00 0.00 52 1005.3
20260506155429 74 212 0.0 3.0 0.00 0.00 0.00 52 1005.2
20260506155152 74 198 0.0 3.0 0.00 0.00 0.00 52 1005.3
20260506154705 74 186 0.0 3.0 0.00 0.00 0.00 51 1005.3
20260506154648 74 163 0.0 3.0 0.00 0.00 0.00 52 1005.4
20260506154412 74 156 0.0 3.0 0.00 0.00 0.00 51 1005.3
20260506154357 74 184 0.0 6.0 0.00 0.00 0.00 51 1005.2
20260506154131 74 127 0.0 6.0 0.00 0.00 0.00 52 1005.2
20260506154114 74 185 0.0 6.0 0.00 0.00 0.00 52 1005.3
20260506154058 74 188 0.0 6.0 0.00 0.00 0.00 51 1005.3
20260506153822 74 157 0.0 6.0 0.00 0.00 0.00 51 1005.4
20260506153803 74 193 0.0 6.0 0.00 0.00 0.00 51 1005.3
20260506153537 74 109 0.0 6.0 0.00 0.00 0.00 51 1005.3
20260506153258 74 188 0.0 6.0 0.00 0.00 0.00 50 1005.6
20260506153242 74 209 2.0 7.0 0.00 0.00 0.00 50 1005.2
20260506153016 74 205 0.0 7.0 0.00 0.00 0.00 50 1005.6
20260506152916 74 196 0.0 7.0 0.00 0.00 0.00 50 1005.3
20260506152811 74 198 0.0 7.0 0.00 0.00 0.00 50 1005.3
20260506152710 74 175 0.0 7.0 0.00 0.00 0.00 50 1005.5
20260506152611 74 194 0.0 7.0 0.00 0.00 0.00 51 1005.6
20260506152510 74 188 0.0 7.0 0.00 0.00 0.00 50 1005.2
20260506152448 74 198 0.0 8.0 0.00 0.00 0.00 50 1005.5
20260506152430 74 188 0.0 8.0 0.00 0.00 0.00 50 1005.5
20260506152146 74 99 0.0 8.0 0.00 0.00 0.00 50 1005.4
20260506152123 74 211 3.0 8.0 0.00 0.00 0.00 50 1005.3
20260506152107 74 218 1.0 8.0 0.00 0.00 0.00 49 1005.5
20260506152050 74 241 2.0 8.0 0.00 0.00 0.00 49 1005.4
20260506152035 74 244 4.0 8.0 0.00 0.00 0.00 49 1005.5
20260506152019 74 215 1.0 9.0 0.00 0.00 0.00 49 1005.5
20260506151753 75 214 1.0 9.0 0.00 0.00 0.00 49 1005.4
20260506151211 75 183 0.0 9.0 0.00 0.00 0.00 49 1005.3
20260506151111 75 231 2.0 9.0 0.00 0.00 0.00 49 1005.6
20260506151011 75 212 4.0 9.0 0.00 0.00 0.00 49 1005.5
20260506150910 75 198 1.0 9.0 0.00 0.00 0.00 49 1005.4
20260506150807 75 189 0.0 9.0 0.00 0.00 0.00 49 1005.5
20260506150654 75 185 0.0 1.0 0.00 0.00 0.00 49 1005.2
20260506150553 75 198 0.0 2.0 0.00 0.00 0.00 49 1005.3
20260506150501 75 176 0.0 2.0 0.00 0.00 0.00 49 1005.5
20260506150453 76 179 0.0 2.0 0.00 0.00 0.00 49 1005.5
20260506150353 76 187 0.0 3.0 0.00 0.00 0.00 49 1005.3
20260506150304 76 186 0.0 4.0 0.00 0.00 0.00 49 1005.5
20260506150154 76 179 0.0 4.0 0.00 0.00 0.00 49 1005.6
20260506150052 76 130 0.0 4.0 0.00 0.00 0.00 50 1005.4
20260506150000 76 192 0.0 4.0 0.00 0.00 0.00 50 1005.2
20260506145952 76 192 0.0 4.0 0.00 0.00 0.00 49 1005.2
20260506145852 76 186 0.0 4.0 0.00 0.00 0.00 49 1005.4
20260506145752 76 192 0.0 4.0 0.00 0.00 0.00 49 1005.4
20260506145652 76 185 0.0 4.0 0.00 0.00 0.00 49 1005.4
20260506145541 76 171 1.0 7.0 0.00 0.00 0.00 49 1005.3
20260506145500 76 196 0.0 7.0 0.00 0.00 0.00 49 1005.5
20260506145440 76 198 1.0 7.0 0.00 0.00 0.00 48 1005.5
20260506145340 76 189 2.0 7.0 0.00 0.00 0.00 48 1005.6
20260506145315 76 250 1.0 7.0 0.00 0.00 0.00 48 1005.8
20260506145300 76 202 0.0 7.0 0.00 0.00 0.00 48 1005.5
20260506145000 76 184 0.0 10.0 0.00 0.00 0.00 49 1005.6
20260506144941 76 171 0.0 10.0 0.00 0.00 0.00 48 1005.6
20260506144840 76 186 0.0 10.0 0.00 0.00 0.00 50 1005.5
20260506144740 76 196 0.0 10.0 0.00 0.00 0.00 50 1005.7
20260506144706 76 207 0.0 8.0 0.00 0.00 0.00 47 1005.8
20260506144658 76 221 3.0 10.0 0.00 0.00 0.00 49 1005.6
20260506144642 76 216 0.0 10.0 0.00 0.00 0.00 49 1005.6
20260506144618 76 193 0.0 10.0 0.00 0.00 0.00 49 1005.5
20260506144600 76 201 0.0 10.0 0.00 0.00 0.00 49 1005.8
20260506144545 76 179 0.0 10.0 0.00 0.00 0.00 49 1005.7
20260506144528 76 188 1.0 10.0 0.00 0.00 0.00 49 1005.7
20260506144512 76 240 0.0 6.0 0.00 0.00 0.00 49 1005.7
20260506144458 76 195 2.0 6.0 0.00 0.00 0.00 48 1005.6
20260506144450 76 212 1.0 6.0 0.00 0.00 0.00 48 1005.6
20260506144436 77 177 0.0 6.0 0.00 0.00 0.00 48 1005.7
20260506144420 77 182 0.0 6.0 0.00 0.00 0.00 49 1005.6
20260506144405 77 194 0.0 6.0 0.00 0.00 0.00 48 1005.8
20260506144349 77 184 0.0 6.0 0.00 0.00 0.00 49 1005.7
20260506144334 77 140 1.0 6.0 0.00 0.00 0.00 48 1005.7
20260506144104 76 187 0.0 8.0 0.00 0.00 0.00 49 1005.6
20260506144048 76 164 0.0 8.0 0.00 0.00 0.00 48 1005.8
20260506144032 76 280 4.0 8.0 0.00 0.00 0.00 48 1005.9
20260506143545 76 187 0.0 8.0 0.00 0.00 0.00 48 1005.8
20260506143309 76 230 0.0 8.0 0.00 0.00 0.00 48 1005.9
20260506143254 76 184 0.0 8.0 0.00 0.00 0.00 49 1005.8
20260506143238 76 216 3.0 8.0 0.00 0.00 0.00 48 1005.8
20260506143225 76 228 5.0 10.0 0.00 0.00 0.00 48 1005.8
20260506142955 76 234 0.0 10.0 0.00 0.00 0.00 48 1005.8
20260506142240 75 178 0.0 13.0 0.00 0.00 0.00 49 1006.0
20260506141741 75 191 0.0 13.0 0.00 0.00 0.00 50 1006.2
20260506141725 75 176 0.0 13.0 0.00 0.00 0.00 49 1005.7
20260506141452 75 205 3.0 13.0 0.00 0.00 0.00 50 1006.2
20260506141443 75 194 0.0 13.0 0.00 0.00 0.00 49 1005.9
20260506141426 75 191 1.0 13.0 0.00 0.00 0.00 49 1005.8
20260506141105 75 256 3.0 13.0 0.00 0.00 0.00 49 1006.0
20260506141006 75 252 11.0 13.0 0.00 0.00 0.00 49 1005.8
20260506140938 75 180 2.0 10.0 0.00 0.00 0.00 49 1005.8
20260506140905 75 239 2.0 10.0 0.00 0.00 0.00 48 1005.9
20260506140805 75 255 1.0 10.0 0.00 0.00 0.00 48 1005.8
20260506140705 75 221 2.0 10.0 0.00 0.00 0.00 48 1005.8
20260506140605 75 133 0.0 10.0 0.00 0.00 0.00 48 1005.7
20260506140504 75 169 1.0 10.0 0.00 0.00 0.00 48 1005.6
20260506140437 75 206 2.0 10.0 0.00 0.00 0.00 48 1005.6
20260506140406 75 204 4.0 10.0 0.00 0.00 0.00 48 1005.8
20260506140304 75 223 2.0 9.0 0.00 0.00 0.00 49 1005.8
20260506140200 75 202 1.0 9.0 0.00 0.00 0.00 50 1005.9
20260506140101 75 230 4.0 9.0 0.00 0.00 0.00 50 1005.8
20260506135959 75 239 2.0 10.0 0.00 0.00 0.00 50 1005.7
20260506135946 75 208 2.0 10.0 0.00 0.00 0.00 50 1005.7
20260506135937 75 50 1.0 14.0 0.00 0.00 0.00 49 1006.2
20260506135921 75 250 4.0 14.0 0.00 0.00 0.00 49 1006.0
20260506135621 76 238 2.0 7.0 0.00 0.00 0.00 49 1005.9
20260506135614 75 167 0.0 14.0 0.00 0.00 0.00 49 1005.8
20260506135558 75 82 0.0 14.0 0.00 0.00 0.00 49 1005.9
20260506135546 75 188 3.0 14.0 0.00 0.00 0.00 49 1005.9
20260506135536 76 225 2.0 14.0 0.00 0.00 0.00 48 1006.0
20260506135518 76 225 4.0 14.0 0.00 0.00 0.00 48 1005.9
20260506135502 76 256 6.0 14.0 0.00 0.00 0.00 47 1005.8
20260506135225 76 216 8.0 14.0 0.00 0.00 0.00 47 1005.9
20260506135212 76 249 3.0 10.0 0.00 0.00 0.00 48 1005.7
20260506135203 76 227 9.0 10.0 0.00 0.00 0.00 48 1005.7
20260506134700 75 233 1.0 9.0 0.00 0.00 0.00 49 1006.2
20260506134643 75 203 4.0 9.0 0.00 0.00 0.00 49 1006.2
20260506134352 76 216 0.0 7.0 0.00 0.00 0.00 50 1005.9
20260506134251 76 264 2.0 6.0 0.00 0.00 0.00 51 1005.7
20260506134152 76 219 4.0 13.0 0.00 0.00 0.00 50 1005.9
20260506134134 76 200 2.0 13.0 0.00 0.00 0.00 51 1005.8
20260506134119 76 196 1.0 13.0 0.00 0.00 0.00 50 1006.0
20260506134105 76 202 1.0 13.0 0.00 0.00 0.00 51 1006.0
20260506133751 76 196 0.0 13.0 0.00 0.00 0.00 50 1006.0
20260506133654 76 174 0.0 13.0 0.00 0.00 0.00 50 1005.9
20260506133553 76 167 0.0 13.0 0.00 0.00 0.00 50 1005.8
20260506133452 76 222 2.0 13.0 0.00 0.00 0.00 49 1006.2
20260506133425 76 100 0.0 13.0 0.00 0.00 0.00 49 1005.8
20260506133353 76 230 1.0 13.0 0.00 0.00 0.00 49 1005.8
20260506133252 76 262 3.0 13.0 0.00 0.00 0.00 49 1005.8
20260506133217 76 136 1.0 16.0 0.00 0.00 0.00 50 1005.9
20260506133201 76 191 0.0 16.0 0.00 0.00 0.00 51 1006.0
20260506132918 76 203 1.0 16.0 0.00 0.00 0.00 50 1006.0
20260506132909 76 260 0.0 16.0 0.00 0.00 0.00 50 1006.0
20260506132853 76 162 0.0 16.0 0.00 0.00 0.00 50 1006.0
20260506132838 76 203 0.0 16.0 0.00 0.00 0.00 51 1005.9
20260506132601 75 196 2.0 16.0 0.00 0.00 0.00 51 1005.9
20260506132548 76 201 4.0 16.0 0.00 0.00 0.00 50 1006.0
20260506132539 76 307 5.0 16.0 0.00 0.00 0.00 51 1006.0
20260506132522 76 313 6.0 17.0 0.00 0.00 0.00 50 1006.3
20260506131940 76 196 2.0 17.0 0.00 0.00 0.00 50 1006.2
20260506131912 76 205 1.0 17.0 0.00 0.00 0.00 50 1006.0
20260506131842 76 194 0.0 17.0 0.00 0.00 0.00 51 1006.0
20260506131744 76 144 0.0 17.0 0.00 0.00 0.00 51 1006.2
20260506131732 76 220 4.0 14.0 0.00 0.00 0.00 51 1005.9
20260506131722 75 124 0.0 17.0 0.00 0.00 0.00 51 1006.0
20260506131706 75 205 1.0 17.0 0.00 0.00 0.00 51 1006.3
20260506131650 75 204 2.0 17.0 0.00 0.00 0.00 51 1006.0
20260506131637 75 182 11.0 17.0 0.00 0.00 0.00 50 1006.0
20260506131407 75 199 5.0 14.0 0.00 0.00 0.00 50 1005.9
20260506131142 75 228 5.0 14.0 0.00 0.00 0.00 50 1006.0
20260506131128 76 272 6.0 14.0 0.00 0.00 0.00 51 1006.0
20260506131112 76 236 6.0 14.0 0.00 0.00 0.00 51 1005.9
20260506130844 75 193 0.0 14.0 0.00 0.00 0.00 51 1006.3
20260506130828 75 157 0.0 14.0 0.00 0.00 0.00 53 1006.3
20260506130813 75 193 3.0 14.0 0.00 0.00 0.00 52 1006.3
20260506130537 76 257 10.0 14.0 0.00 0.00 0.00 50 1006.2
20260506130525 76 194 8.0 11.0 0.00 0.00 0.00 50 1006.2
20260506130206 76 173 0.0 11.0 0.00 0.00 0.00 49 1005.9
20260506130107 76 125 1.0 11.0 0.00 0.00 0.00 50 1006.0
20260506130017 77 227 6.0 11.0 0.00 0.00 0.00 50 1006.0
20260506130001 77 248 0.0 11.0 0.00 0.00 0.00 51 1005.8
20260506125947 77 208 1.0 11.0 0.00 0.00 0.00 50 1005.8
20260506125937 77 187 0.0 11.0 0.00 0.00 0.00 50 1005.9
20260506125922 77 180 0.0 11.0 0.00 0.00 0.00 50 1006.2
20260506125906 77 179 0.0 11.0 0.00 0.00 0.00 49 1006.3
20260506125632 77 199 2.0 10.0 0.00 0.00 0.00 50 1006.3
20260506125620 77 167 0.0 10.0 0.00 0.00 0.00 50 1006.3
20260506125348 76 134 1.0 15.0 0.00 0.00 0.00 51 1006.2
20260506125334 76 193 0.0 15.0 0.00 0.00 0.00 51 1006.0
20260506125318 76 188 0.0 15.0 0.00 0.00 0.00 50 1006.0
20260506125305 76 216 4.0 15.0 0.00 0.00 0.00 50 1006.3
20260506125249 76 230 1.0 15.0 0.00 0.00 0.00 51 1006.3
20260506125020 75 111 0.0 15.0 0.00 0.00 0.00 53 1006.3
20260506125004 75 214 6.0 15.0 0.00 0.00 0.00 51 1006.3
20260506124511 76 213 5.0 15.0 0.00 0.00 0.00 51 1006.4
20260506124224 76 135 0.0 13.0 0.00 0.00 0.00 51 1006.2
20260506124208 76 193 0.0 13.0 0.00 0.00 0.00 51 1006.3
20260506123902 75 212 0.0 10.0 0.00 0.00 0.00 53 1006.3
20260506123857 76 131 1.0 8.0 0.00 0.00 0.00 51 1006.2
20260506123845 76 78 2.0 8.0 0.00 0.00 0.00 51 1006.2
20260506123835 76 251 3.0 8.0 0.00 0.00 0.00 52 1006.2
20260506123818 75 281 5.0 8.0 0.00 0.00 0.00 52 1006.5
20260506123802 75 192 0.0 10.0 0.00 0.00 0.00 53 1006.4
20260506123747 75 216 4.0 10.0 0.00 0.00 0.00 53 1006.4
20260506123730 75 212 0.0 10.0 0.00 0.00 0.00 53 1006.3
20260506123501 75 247 1.0 15.0 0.00 0.00 0.00 53 1006.6
20260506123444 75 157 0.0 15.0 0.00 0.00 0.00 54 1006.3
20260506123209 75 204 1.0 15.0 0.00 0.00 0.00 53 1006.5
20260506123153 74 156 0.0 15.0 0.00 0.00 0.00 54 1006.5
20260506123143 74 143 0.0 15.0 0.00 0.00 0.00 54 1006.5
20260506122651 75 194 3.0 15.0 0.00 0.00 0.00 53 1006.6
20260506122636 75 314 0.0 15.0 0.00 0.00 0.00 54 1006.6
20260506122620 76 224 11.0 15.0 0.00 0.00 0.00 53 1006.5
20260506122608 76 219 7.0 11.0 0.00 0.00 0.00 53 1006.6
20260506122028 76 209 0.0 8.0 0.00 0.00 0.00 52 1006.4
20260506122006 76 177 0.0 9.0 0.00 0.00 0.00 52 1006.6
20260506121942 76 212 0.0 9.0 0.00 0.00 0.00 52 1006.4
20260506121618 76 195 1.0 9.0 0.00 0.00 0.00 51 1006.3
20260506121519 77 216 3.0 9.0 0.00 0.00 0.00 51 1006.3
20260506121420 77 178 0.0 9.0 0.00 0.00 0.00 51 1006.5
20260506121318 77 191 0.0 9.0 0.00 0.00 0.00 52 1006.6
20260506121216 76 198 0.0 9.0 0.00 0.00 0.00 53 1006.6
20260506121111 76 200 0.0 15.0 0.00 0.00 0.00 53 1006.5
20260506121049 76 145 1.0 15.0 0.00 0.00 0.00 52 1006.4
20260506121033 75 215 1.0 15.0 0.00 0.00 0.00 52 1006.4
20260506120806 75 192 1.0 15.0 0.00 0.00 0.00 52 1006.5
20260506120707 75 7 5.0 15.0 0.00 0.00 0.00 52 1006.6
20260506120625 74 241 2.0 16.0 0.00 0.00 0.00 54 1006.4
20260506120618 75 329 1.0 16.0 0.00 0.00 0.00 54 1006.6
20260506120602 74 217 4.0 16.0 0.00 0.00 0.00 53 1006.4
20260506120546 74 178 1.0 16.0 0.00 0.00 0.00 54 1006.6
20260506120529 74 241 2.0 16.0 0.00 0.00 0.00 54 1006.4
20260506120206 74 269 3.0 22.0 0.00 0.00 0.00 54 1006.6
20260506120142 74 219 8.0 22.0 0.00 0.00 0.00 53 1006.4
20260506120125 74 179 5.0 22.0 0.00 0.00 0.00 54 1006.3
20260506115806 75 197 2.0 22.0 0.00 0.00 0.00 54 1006.5
20260506115704 75 232 2.0 22.0 0.00 0.00 0.00 53 1006.3
20260506115615 75 209 1.0 22.0 0.00 0.00 0.00 53 1006.4
20260506115559 74 218 1.0 22.0 0.00 0.00 0.00 54 1006.5
20260506115544 74 210 3.0 22.0 0.00 0.00 0.00 55 1006.2
20260506115317 74 226 4.0 22.0 0.00 0.00 0.00 55 1006.3
20260506115300 74 207 1.0 15.0 0.00 0.00 0.00 54 1006.5
20260506115243 74 169 7.0 16.0 0.00 0.00 0.00 53 1006.5
20260506115226 74 196 3.0 16.0 0.00 0.00 0.00 53 1006.5
20260506114951 74 189 0.0 16.0 0.00 0.00 0.00 54 1006.3
20260506114634 74 262 4.0 16.0 0.00 0.00 0.00 55 1006.5
20260506114535 74 203 2.0 16.0 0.00 0.00 0.00 54 1006.4
20260506114437 74 312 2.0 16.0 0.00 0.00 0.00 55 1006.4
20260506114420 74 179 1.0 16.0 0.00 0.00 0.00 55 1006.3
20260506114406 74 207 2.0 16.0 0.00 0.00 0.00 55 1006.5
20260506114358 74 207 2.0 16.0 0.00 0.00 0.00 54 1006.5
20260506114112 75 339 1.0 13.0 0.00 0.00 0.00 54 1006.4
20260506114055 74 68 1.0 13.0 0.00 0.00 0.00 56 1006.2
20260506113808 74 189 5.0 16.0 0.00 0.00 0.00 55 1006.7
20260506113800 74 273 2.0 16.0 0.00 0.00 0.00 55 1006.4
20260506113744 74 214 1.0 16.0 0.00 0.00 0.00 55 1006.3
20260506113728 74 127 0.0 16.0 0.00 0.00 0.00 55 1006.3
20260506113712 74 230 1.0 16.0 0.00 0.00 0.00 56 1006.6
20260506113438 74 249 2.0 16.0 0.00 0.00 0.00 56 1006.4
20260506113100 74 233 8.0 16.0 0.00 0.00 0.00 55 1006.4
20260506113001 74 267 3.0 16.0 0.00 0.00 0.00 56 1006.3
20260506112900 74 131 7.0 16.0 0.00 0.00 0.00 56 1006.3
20260506112759 73 179 2.0 14.0 0.00 0.00 0.00 56 1006.0
20260506112744 73 206 0.0 14.0 0.00 0.00 0.00 57 1006.0
20260506112655 73 207 0.0 14.0 0.00 0.00 0.00 57 1006.6
20260506112554 74 234 6.0 14.0 0.00 0.00 0.00 56 1006.6
20260506112529 74 219 4.0 10.0 0.00 0.00 0.00 56 1006.3
20260506112513 74 207 4.0 8.0 0.00 0.00 0.00 56 1006.5
20260506112238 74 180 2.0 8.0 0.00 0.00 0.00 57 1006.4
20260506112153 74 208 1.0 8.0 0.00 0.00 0.00 56 1006.4
20260506112117 75 185 0.0 8.0 0.00 0.00 0.00 56 1006.5
20260506112100 75 238 0.0 8.0 0.00 0.00 0.00 55 1006.5
20260506111829 74 209 1.0 14.0 0.00 0.00 0.00 56 1006.5
20260506111810 74 192 0.0 9.0 0.00 0.00 0.00 56 1006.4
20260506111754 75 190 0.0 10.0 0.00 0.00 0.00 56 1006.7
20260506111529 75 173 0.0 11.0 0.00 0.00 0.00 55 1006.6
20260506111514 74 190 0.0 14.0 0.00 0.00 0.00 56 1006.5
20260506111459 74 209 0.0 14.0 0.00 0.00 0.00 55 1006.5
20260506111442 74 209 1.0 14.0 0.00 0.00 0.00 56 1006.5
20260506111129 74 175 0.0 14.0 0.00 0.00 0.00 55 1006.6
20260506111029 74 251 0.0 14.0 0.00 0.00 0.00 56 1006.3
20260506110928 74 194 1.0 14.0 0.00 0.00 0.00 56 1006.6
20260506110828 74 141 2.0 14.0 0.00 0.00 0.00 56 1006.5
20260506110724 74 151 0.0 14.0 0.00 0.00 0.00 56 1006.6
20260506110625 74 5 3.0 14.0 0.00 0.00 0.00 56 1006.4
20260506110524 75 140 1.0 14.0 0.00 0.00 0.00 56 1006.5
20260506110500 76 172 4.0 14.0 0.00 0.00 0.00 55 1006.3
20260506110446 76 172 0.0 14.0 0.00 0.00 0.00 56 1006.2
20260506110219 75 224 2.0 14.0 0.00 0.00 0.00 55 1006.5
20260506110118 75 250 0.0 14.0 0.00 0.00 0.00 55 1006.6
20260506110017 75 198 0.0 14.0 0.00 0.00 0.00 55 1006.6
20260506105916 74 177 0.0 14.0 0.00 0.00 0.00 55 1006.6
20260506105817 74 175 0.0 14.0 0.00 0.00 0.00 57 1006.6
20260506105716 74 176 0.0 14.0 0.00 0.00 0.00 56 1006.5
20260506105649 74 239 3.0 14.0 0.00 0.00 0.00 56 1006.6
20260506105633 74 307 4.0 10.0 0.00 0.00 0.00 56 1006.5
20260506105312 75 226 5.0 10.0 0.00 0.00 0.00 55 1006.4
20260506105212 75 22 4.0 10.0 0.00 0.00 0.00 55 1006.7
20260506105110 75 261 4.0 10.0 0.00 0.00 0.00 56 1006.7
20260506105011 75 41 8.0 10.0 0.00 0.00 0.00 55 1006.5
20260506104910 75 236 4.0 8.0 0.00 0.00 0.00 56 1006.7
20260506104808 75 293 1.0 8.0 0.00 0.00 0.00 55 1006.5
20260506104746 75 200 0.0 8.0 0.00 0.00 0.00 56 1006.6
20260506104729 74 196 0.0 14.0 0.00 0.00 0.00 55 1006.5
20260506104457 74 196 0.0 14.0 0.00 0.00 0.00 56 1006.9
20260506104448 74 166 0.0 14.0 0.00 0.00 0.00 55 1006.7
20260506104432 74 232 3.0 14.0 0.00 0.00 0.00 56 1006.7
20260506104414 74 196 0.0 14.0 0.00 0.00 0.00 56 1006.9
20260506104104 74 175 0.0 14.0 0.00 0.00 0.00 56 1006.8
20260506104004 74 233 0.0 14.0 0.00 0.00 0.00 56 1006.7
20260506103901 74 145 0.0 14.0 0.00 0.00 0.00 56 1006.5
20260506103800 74 297 0.0 14.0 0.00 0.00 0.00 55 1006.5
20260506103700 74 225 2.0 14.0 0.00 0.00 0.00 55 1006.5
20260506103604 74 74 0.0 14.0 0.00 0.00 0.00 56 1006.8
20260506103548 73 171 0.0 14.0 0.00 0.00 0.00 57 1006.6
20260506103531 74 199 1.0 16.0 0.00 0.00 0.00 56 1006.6
20260506103516 74 226 10.0 16.0 0.00 0.00 0.00 55 1006.8
20260506103454 74 253 0.0 16.0 0.00 0.00 0.00 56 1006.6
20260506103436 74 230 4.0 16.0 0.00 0.00 0.00 56 1006.7
20260506103201 74 191 1.0 16.0 0.00 0.00 0.00 56 1006.7
20260506103145 74 191 0.0 16.0 0.00 0.00 0.00 56 1006.6
20260506103122 74 186 0.0 16.0 0.00 0.00 0.00 55 1006.7
20260506102625 75 275 3.0 11.0 0.00 0.00 0.00 55 1006.7
20260506102349 75 161 1.0 11.0 0.00 0.00 0.00 55 1006.9
20260506102106 74 48 0.0 11.0 0.00 0.00 0.00 56 1006.5
20260506102049 74 287 4.0 11.0 0.00 0.00 0.00 56 1006.8
20260506101730 75 334 1.0 13.0 0.00 0.00 0.00 55 1006.5
20260506101637 75 175 2.0 13.0 0.00 0.00 0.00 55 1006.5
20260506101629 75 190 4.0 13.0 0.00 0.00 0.00 55 1006.6
20260506101529 75 211 1.0 13.0 0.00 0.00 0.00 55 1006.7
20260506101428 74 154 1.0 13.0 0.00 0.00 0.00 55 1006.7
20260506101329 74 202 0.0 13.0 0.00 0.00 0.00 57 1006.7
20260506101224 74 227 1.0 13.0 0.00 0.00 0.00 55 1007.0
20260506101135 74 180 0.0 13.0 0.00 0.00 0.00 56 1007.0
20260506101127 74 180 0.0 13.0 0.00 0.00 0.00 57 1006.6
20260506101022 75 212 0.0 13.0 0.00 0.00 0.00 56 1006.8
20260506100923 75 248 9.0 13.0 0.00 0.00 0.00 55 1006.7
20260506100824 75 187 0.0 13.0 0.00 0.00 0.00 56 1006.7
20260506100752 75 203 1.0 13.0 0.00 0.00 0.00 56 1006.7
20260506100735 74 211 1.0 16.0 0.00 0.00 0.00 56 1006.7
20260506100728 74 211 0.0 16.0 0.00 0.00 0.00 56 1006.7
20260506100713 74 180 0.0 16.0 0.00 0.00 0.00 56 1006.7
20260506100436 73 176 0.0 16.0 0.00 0.00 0.00 57 1006.8
20260506100421 73 173 1.0 16.0 0.00 0.00 0.00 57 1006.8
20260506100405 73 91 4.0 16.0 0.00 0.00 0.00 57 1006.7
20260506100357 73 280 6.0 16.0 0.00 0.00 0.00 57 1006.7
20260506100120 73 181 0.0 16.0 0.00 0.00 0.00 58 1006.6
20260506100105 73 225 2.0 16.0 0.00 0.00 0.00 59 1006.5
20260506095827 73 181 0.0 11.0 0.00 0.00 0.00 58 1006.6
20260506095517 73 137 0.0 11.0 0.00 0.00 0.00 58 1006.4
20260506095416 72 247 5.0 11.0 0.00 0.00 0.00 58 1006.7
20260506095317 72 122 0.0 11.0 0.00 0.00 0.00 58 1006.5
20260506095305 72 232 2.0 11.0 0.00 0.00 0.00 58 1006.6
20260506095246 72 143 2.0 11.0 0.00 0.00 0.00 58 1006.6
20260506095237 72 293 3.0 11.0 0.00 0.00 0.00 58 1006.6
20260506094913 73 311 4.0 11.0 0.00 0.00 0.00 57 1006.6
20260506094812 73 211 0.0 10.0 0.00 0.00 0.00 57 1006.8
20260506094709 73 187 0.0 10.0 0.00 0.00 0.00 57 1006.4
20260506094624 73 180 0.0 10.0 0.00 0.00 0.00 58 1006.7
20260506094600 73 186 0.0 14.0 0.00 0.00 0.00 58 1006.7
20260506094500 73 192 0.0 14.0 0.00 0.00 0.00 57 1006.7
20260506094359 73 83 1.0 14.0 0.00 0.00 0.00 58 1006.6
20260506094254 73 169 4.0 14.0 0.00 0.00 0.00 57 1006.8
20260506094152 73 150 0.0 14.0 0.00 0.00 0.00 57 1006.5
20260506094112 73 82 0.0 14.0 0.00 0.00 0.00 57 1006.6
20260506094053 73 190 1.0 14.0 0.00 0.00 0.00 57 1006.6
20260506093952 73 50 0.0 14.0 0.00 0.00 0.00 56 1006.7
20260506093853 74 208 1.0 14.0 0.00 0.00 0.00 56 1006.7
20260506093829 74 194 0.0 14.0 0.00 0.00 0.00 57 1006.7
20260506093815 74 224 1.0 14.0 0.00 0.00 0.00 56 1006.6
20260506093801 74 62 5.0 14.0 0.00 0.00 0.00 56 1006.6
20260506093444 75 114 1.0 10.0 0.00 0.00 0.00 56 1006.6
20260506093341 75 199 0.0 10.0 0.00 0.00 0.00 55 1006.7
20260506093241 75 226 1.0 10.0 0.00 0.00 0.00 56 1006.6
20260506093226 75 142 1.0 10.0 0.00 0.00 0.00 56 1006.7
20260506093210 75 206 1.0 10.0 0.00 0.00 0.00 56 1006.6
20260506093202 75 175 0.0 10.0 0.00 0.00 0.00 55 1006.6
20260506092834 75 243 0.0 14.0 0.00 0.00 0.00 55 1006.3
20260506092734 75 183 0.0 14.0 0.00 0.00 0.00 55 1006.4
20260506092634 75 183 0.0 14.0 0.00 0.00 0.00 55 1006.3
20260506092554 75 74 0.0 14.0 0.00 0.00 0.00 56 1006.4
20260506092534 74 177 1.0 14.0 0.00 0.00 0.00 56 1006.4
20260506092434 74 179 0.0 14.0 0.00 0.00 0.00 56 1006.6
20260506092408 74 80 0.0 14.0 0.00 0.00 0.00 55 1006.0
20260506092353 74 260 2.0 14.0 0.00 0.00 0.00 56 1006.4
20260506092051 73 166 1.0 14.0 0.00 0.00 0.00 57 1006.4
20260506092030 73 237 4.0 14.0 0.00 0.00 0.00 57 1006.3
20260506091929 73 140 0.0 14.0 0.00 0.00 0.00 58 1006.5
20260506091830 73 191 7.0 14.0 0.00 0.00 0.00 58 1006.6
20260506091728 73 169 0.0 14.0 0.00 0.00 0.00 57 1006.5
20260506091628 73 220 2.0 14.0 0.00 0.00 0.00 57 1006.6
20260506091548 73 171 1.0 14.0 0.00 0.00 0.00 58 1006.6
20260506091529 73 243 6.0 14.0 0.00 0.00 0.00 58 1006.4
20260506091428 73 196 0.0 11.0 0.00 0.00 0.00 59 1006.2
20260506091329 74 203 5.0 11.0 0.00 0.00 0.00 57 1006.4
20260506091228 74 192 0.0 11.0 0.00 0.00 0.00 57 1006.7
20260506091207 74 230 1.0 9.0 0.00 0.00 0.00 57 1006.2
20260506091150 74 217 0.0 9.0 0.00 0.00 0.00 57 1006.2
20260506091143 74 200 0.0 11.0 0.00 0.00 0.00 57 1006.2
20260506090816 74 188 0.0 13.0 0.00 0.00 0.00 57 1006.3
20260506090712 74 214 6.0 13.0 0.00 0.00 0.00 57 1006.3
20260506090611 74 199 2.0 13.0 0.00 0.00 0.00 57 1006.4
20260506090547 74 276 0.0 13.0 0.00 0.00 0.00 58 1006.4
20260506090511 74 212 0.0 13.0 0.00 0.00 0.00 57 1006.4
20260506090410 73 119 0.0 13.0 0.00 0.00 0.00 58 1006.5
20260506090300 72 202 0.0 13.0 0.00 0.00 0.00 60 1006.3
20260506090213 72 199 0.0 13.0 0.00 0.00 0.00 60 1006.3
20260506090157 72 243 2.0 13.0 0.00 0.00 0.00 59 1006.5
20260506090144 72 163 6.0 13.0 0.00 0.00 0.00 59 1006.5
20260506090120 71 179 0.0 13.0 0.00 0.00 0.00 60 1006.5
20260506085759 71 235 2.0 13.0 0.00 0.00 0.00 61 1006.5
20260506085655 71 267 6.0 13.0 0.00 0.00 0.00 60 1006.3
20260506085554 72 244 7.0 13.0 0.00 0.00 0.00 60 1006.4
20260506085538 72 232 4.0 13.0 0.00 0.00 0.00 60 1006.4
20260506085452 72 86 1.0 13.0 0.00 0.00 0.00 60 1006.4
20260506085353 72 282 6.0 9.0 0.00 0.00 0.00 58 1006.6
20260506085253 71 188 2.0 7.0 0.00 0.00 0.00 61 1006.3
20260506085153 71 198 1.0 7.0 0.00 0.00 0.00 60 1006.4
20260506085041 72 271 4.0 7.0 0.00 0.00 0.00 60 1006.3
20260506084446 71 225 3.0 16.0 0.00 0.00 0.00 62 1006.3
20260506084346 71 184 3.0 16.0 0.00 0.00 0.00 62 1006.4
20260506084246 71 215 2.0 16.0 0.00 0.00 0.00 61 1006.0
20260506084144 70 232 5.0 19.0 0.00 0.00 0.00 61 1006.4
20260506084128 70 223 4.0 19.0 0.00 0.00 0.00 61 1006.4
20260506084044 70 227 7.0 19.0 0.00 0.00 0.00 61 1006.4
20260506083945 70 195 4.0 19.0 0.00 0.00 0.00 63 1006.3
20260506083840 70 211 6.0 19.0 0.00 0.00 0.00 62 1006.4
20260506083739 71 238 14.0 19.0 0.00 0.00 0.00 61 1005.9
20260506083641 71 241 5.0 19.0 0.00 0.00 0.00 60 1006.2
20260506083624 71 203 3.0 19.0 0.00 0.00 0.00 60 1006.2
20260506083540 71 199 0.0 19.0 0.00 0.00 0.00 60 1006.3
20260506083505 73 158 1.0 8.0 0.00 0.00 0.00 58 1005.9
20260506083456 71 198 1.0 19.0 0.00 0.00 0.00 60 1006.0
20260506083440 72 148 1.0 19.0 0.00 0.00 0.00 61 1005.9
20260506083425 72 229 8.0 19.0 0.00 0.00 0.00 59 1005.9
20260506083153 73 243 4.0 18.0 0.00 0.00 0.00 59 1005.9
20260506083142 74 191 3.0 18.0 0.00 0.00 0.00 58 1005.9
20260506083127 74 258 2.0 8.0 0.00 0.00 0.00 57 1005.9
20260506083110 74 203 0.0 8.0 0.00 0.00 0.00 57 1006.0
20260506082833 73 205 3.0 8.0 0.00 0.00 0.00 58 1005.9
20260506082534 73 190 2.0 8.0 0.00 0.00 0.00 59 1006.0
20260506082450 74 196 0.0 8.0 0.00 0.00 0.00 58 1006.0
20260506082441 73 234 4.0 8.0 0.00 0.00 0.00 58 1006.2
20260506082426 74 189 0.0 8.0 0.00 0.00 0.00 58 1006.0
20260506082410 74 199 2.0 8.0 0.00 0.00 0.00 58 1006.0
20260506082138 74 171 0.0 8.0 0.00 0.00 0.00 58 1006.2
20260506082128 74 188 0.0 8.0 0.00 0.00 0.00 58 1006.3
20260506082111 74 218 0.0 8.0 0.00 0.00 0.00 58 1006.4
20260506082056 74 132 0.0 8.0 0.00 0.00 0.00 58 1006.4
20260506081821 74 196 0.0 8.0 0.00 0.00 0.00 58 1006.0
20260506081515 73 183 0.0 8.0 0.00 0.00 0.00 59 1006.2
20260506081415 73 196 0.0 8.0 0.00 0.00 0.00 59 1006.3
20260506081310 73 234 0.0 9.0 0.00 0.00 0.00 60 1006.3
20260506081251 73 190 1.0 9.0 0.00 0.00 0.00 60 1006.3
20260506081229 73 216 2.0 9.0 0.00 0.00 0.00 60 1006.2
20260506080908 72 170 0.0 14.0 0.00 0.00 0.00 60 1006.2
20260506080857 70 184 0.0 14.0 0.00 0.00 0.00 62 1006.0
20260506080848 72 200 1.0 14.0 0.00 0.00 0.00 59 1006.2
20260506080832 71 180 0.0 14.0 0.00 0.00 0.00 61 1006.2
20260506080814 70 184 0.0 14.0 0.00 0.00 0.00 62 1006.0
20260506080504 70 210 4.0 14.0 0.00 0.00 0.00 63 1006.4
20260506080404 71 244 6.0 14.0 0.00 0.00 0.00 62 1006.0
20260506080346 71 198 1.0 14.0 0.00 0.00 0.00 60 1006.4
20260506080331 71 218 2.0 14.0 0.00 0.00 0.00 61 1006.4
20260506080104 71 199 2.0 14.0 0.00 0.00 0.00 61 1006.3
20260506073528 71 169 4.0 9.0 0.00 0.00 0.00 60 1006.2
20260506073427 70 215 0.0 9.0 0.00 0.00 0.00 62 1006.0
20260506073327 69 175 0.0 10.0 0.00 0.00 0.00 62 1006.2
20260506073228 69 203 2.0 10.0 0.00 0.00 0.00 62 1006.2
20260506073128 70 278 4.0 10.0 0.00 0.00 0.00 63 1006.0
20260506073027 70 196 0.0 10.0 0.00 0.00 0.00 62 1006.2
20260506072927 70 152 0.0 10.0 0.00 0.00 0.00 63 1006.2
20260506072827 70 88 0.0 11.0 0.00 0.00 0.00 61 1006.2
20260506072810 70 157 0.0 13.0 0.00 0.00 0.00 62 1006.2
20260506072755 70 205 0.0 13.0 0.00 0.00 0.00 61 1006.0
20260506072528 71 251 6.0 13.0 0.00 0.00 0.00 62 1006.0
20260506072426 71 227 1.0 13.0 0.00 0.00 0.00 60 1006.0
20260506072327 71 145 0.0 13.0 0.00 0.00 0.00 60 1006.0
20260506072227 70 182 0.0 13.0 0.00 0.00 0.00 61 1006.2
20260506072126 70 207 0.0 13.0 0.00 0.00 0.00 62 1006.2
20260506072027 70 193 0.0 13.0 0.00 0.00 0.00 62 1006.0
20260506071926 70 271 3.0 13.0 0.00 0.00 0.00 62 1006.0
20260506071828 71 226 3.0 7.0 0.00 0.00 0.00 61 1006.0
20260506071726 71 177 0.0 10.0 0.00 0.00 0.00 62 1005.9
20260506071626 71 222 1.0 10.0 0.00 0.00 0.00 61 1005.9
20260506071515 71 185 1.0 10.0 0.00 0.00 0.00 61 1006.3
20260506071431 70 177 0.0 11.0 0.00 0.00 0.00 61 1006.2
20260506071416 70 218 1.0 11.0 0.00 0.00 0.00 62 1006.2
20260506071058 69 184 0.0 11.0 0.00 0.00 0.00 63 1006.0
20260506071004 69 196 0.0 11.0 0.00 0.00 0.00 64 1006.0
20260506070956 68 203 0.0 11.0 0.00 0.00 0.00 64 1006.0
20260506070856 68 138 0.0 11.0 0.00 0.00 0.00 64 1006.0
20260506070821 69 192 0.0 11.0 0.00 0.00 0.00 64 1006.0
20260506070806 69 211 6.0 11.0 0.00 0.00 0.00 63 1005.9
20260506070455 70 144 8.0 11.0 0.00 0.00 0.00 61 1005.9
20260506070445 70 231 3.0 9.0 0.00 0.00 0.00 61 1005.9
20260506070337 69 184 0.0 7.0 0.00 0.00 0.00 62 1006.2
20260506070236 69 177 0.0 7.0 0.00 0.00 0.00 63 1005.9
20260506070133 69 190 4.0 7.0 0.00 0.00 0.00 63 1006.2
20260506062510 66 174 2.0 16.0 0.00 0.00 0.00 66 1005.8
20260506062222 66 200 4.0 16.0 0.00 0.00 0.00 66 1005.7
20260506062207 66 20 5.0 16.0 0.00 0.00 0.00 66 1005.8
20260506061920 66 232 1.0 16.0 0.00 0.00 0.00 66 1005.7
20260506061845 66 243 1.0 16.0 0.00 0.00 0.00 65 1005.7
20260506061746 66 179 2.0 13.0 0.00 0.00 0.00 65 1006.0
20260506061645 66 268 4.0 13.0 0.00 0.00 0.00 66 1005.9
20260506061545 66 210 2.0 13.0 0.00 0.00 0.00 66 1005.9
20260506061520 66 165 1.0 13.0 0.00 0.00 0.00 65 1005.7
20260506061507 66 233 4.0 13.0 0.00 0.00 0.00 66 1005.7
20260506061456 66 125 2.0 13.0 0.00 0.00 0.00 66 1005.7
20260506061441 66 216 4.0 13.0 0.00 0.00 0.00 66 1005.8
20260506061206 66 98 0.0 9.0 0.00 0.00 0.00 65 1005.6
20260506060926 66 163 0.0 9.0 0.00 0.00 0.00 65 1005.9
20260506060916 66 207 5.0 11.0 0.00 0.00 0.00 65 1005.9
20260506060901 66 216 5.0 11.0 0.00 0.00 0.00 66 1005.8
20260506060540 66 271 5.0 11.0 0.00 0.00 0.00 65 1005.9
20260506060439 66 198 0.0 11.0 0.00 0.00 0.00 65 1005.8
20260506060411 66 204 2.0 11.0 0.00 0.00 0.00 65 1005.6
20260506060339 66 229 2.0 13.0 0.00 0.00 0.00 65 1005.6
20260506060238 66 246 6.0 15.0 0.00 0.00 0.00 65 1005.6
20260506060138 65 141 1.0 15.0 0.00 0.00 0.00 65 1005.8